Wetterdaten: Samstag, 15.04.2017
Datum Zeit Temp. A. Feuchte A. Luftdruck Regen Wind Richtung Richtung Sonnenschein ET UV Solar Taupunkt Windchill Windben Empfang
15.04.2017 00:00 10,1 C 75 % 1015,2 hPa 0,0 l/m 4,8 km/h (1 Bft) W-SW 247 0 min 0,025 mm 0,0 UV-I 0 W/m 5,9 C 10,1 C 6,4 km/h (2 Bft) 98,25 %
15.04.2017 00:05 10,1 C 75 % 1015,2 hPa 0,0 l/m 3,2 km/h (1 Bft) W-SW 247 0 min 0,000 mm 0,0 UV-I 0 W/m 5,9 C 10,1 C 6,4 km/h (2 Bft) 95,61 %
15.04.2017 00:10 10,1 C 75 % 1015,2 hPa 0,0 l/m 3,2 km/h (1 Bft) W-SW 247 0 min 0,000 mm 0,0 UV-I 0 W/m 5,9 C 10,1 C 6,4 km/h (2 Bft) 95,61 %
15.04.2017 00:15 10,1 C 74 % 1015,1 hPa 0,0 l/m 3,2 km/h (1 Bft) W-SW 247 0 min 0,000 mm 0,0 UV-I 0 W/m 5,7 C 10,1 C 6,4 km/h (2 Bft) 94,74 %
15.04.2017 00:20 10,1 C 74 % 1015,1 hPa 0,0 l/m 3,2 km/h (1 Bft) W-SW 247 0 min 0,000 mm 0,0 UV-I 0 W/m 5,7 C 10,1 C 6,4 km/h (2 Bft) 98,25 %
15.04.2017 00:25 10,1 C 75 % 1015,1 hPa 0,0 l/m 3,2 km/h (1 Bft) W-SW 247 0 min 0,000 mm 0,0 UV-I 0 W/m 5,9 C 10,1 C 6,4 km/h (2 Bft) 96,49 %
15.04.2017 00:30 10,0 C 76 % 1015,1 hPa 0,0 l/m 4,8 km/h (1 Bft) W-SW 247 0 min 0,000 mm 0,0 UV-I 0 W/m 6,0 C 10,0 C 6,4 km/h (2 Bft) 98,25 %
15.04.2017 00:35 9,9 C 76 % 1015,1 hPa 0,0 l/m 4,8 km/h (1 Bft) SW 225 0 min 0,000 mm 0,0 UV-I 0 W/m 5,9 C 9,9 C 8,0 km/h (2 Bft) 97,37 %
15.04.2017 00:40 9,6 C 78 % 1015,1 hPa 0,0 l/m 3,2 km/h (1 Bft) SW 225 0 min 0,000 mm 0,0 UV-I 0 W/m 6,0 C 9,6 C 4,8 km/h (1 Bft) 94,74 %
15.04.2017 00:45 9,3 C 79 % 1015,1 hPa 0,0 l/m 1,6 km/h (1 Bft) SW 225 0 min 0,000 mm 0,0 UV-I 0 W/m 5,8 C 9,3 C 6,4 km/h (2 Bft) 94,74 %
15.04.2017 00:50 9,1 C 79 % 1015,2 hPa 0,0 l/m 1,6 km/h (1 Bft) SW 225 0 min 0,000 mm 0,0 UV-I 0 W/m 5,7 C 9,1 C 3,2 km/h (1 Bft) 95,61 %
15.04.2017 00:55 9,2 C 79 % 1015,2 hPa 0,0 l/m 1,6 km/h (1 Bft) SW 225 0 min 0,000 mm 0,0 UV-I 0 W/m 5,8 C 9,2 C 4,8 km/h (1 Bft) 98,25 %
15.04.2017 01:00 9,4 C 78 % 1015,2 hPa 0,0 l/m 1,6 km/h (1 Bft) SW 225 0 min 0,025 mm 0,0 UV-I 0 W/m 5,8 C 9,4 C 4,8 km/h (1 Bft) 97,37 %
15.04.2017 01:05 9,6 C 77 % 1015,2 hPa 0,0 l/m 3,2 km/h (1 Bft) S 180 0 min 0,000 mm 0,0 UV-I 0 W/m 5,8 C 9,6 C 4,8 km/h (1 Bft) 97,37 %
15.04.2017 01:10 9,6 C 77 % 1015,2 hPa 0,0 l/m 3,2 km/h (1 Bft) S 180 0 min 0,000 mm 0,0 UV-I 0 W/m 5,8 C 9,6 C 8,0 km/h (2 Bft) 98,25 %
15.04.2017 01:15 9,6 C 78 % 1015,2 hPa 0,0 l/m 3,2 km/h (1 Bft) S 180 0 min 0,000 mm 0,0 UV-I 0 W/m 6,0 C 9,6 C 6,4 km/h (2 Bft) 100,00 %
15.04.2017 01:20 9,5 C 79 % 1015,2 hPa 0,0 l/m 3,2 km/h (1 Bft) S 180 0 min 0,000 mm 0,0 UV-I 0 W/m 6,0 C 9,5 C 6,4 km/h (2 Bft) 99,12 %
15.04.2017 01:25 9,4 C 79 % 1015,1 hPa 0,0 l/m 3,2 km/h (1 Bft) S 180 0 min 0,000 mm 0,0 UV-I 0 W/m 5,9 C 9,4 C 8,0 km/h (2 Bft) 96,49 %
15.04.2017 01:30 9,3 C 80 % 1015,1 hPa 0,0 l/m 1,6 km/h (1 Bft) S 180 0 min 0,000 mm 0,0 UV-I 0 W/m 6,0 C 9,3 C 4,8 km/h (1 Bft) 95,61 %
15.04.2017 01:35 9,2 C 80 % 1015,0 hPa 0,0 l/m 1,6 km/h (1 Bft) S 180 0 min 0,000 mm 0,0 UV-I 0 W/m 5,9 C 9,2 C 6,4 km/h (2 Bft) 93,86 %
15.04.2017 01:40 8,9 C 81 % 1015,1 hPa 0,0 l/m 3,2 km/h (1 Bft) S 180 0 min 0,000 mm 0,0 UV-I 0 W/m 5,8 C 8,9 C 4,8 km/h (1 Bft) 94,74 %
15.04.2017 01:45 8,7 C 82 % 1015,1 hPa 0,0 l/m 1,6 km/h (1 Bft) S 180 0 min 0,000 mm 0,0 UV-I 0 W/m 5,8 C 8,7 C 3,2 km/h (1 Bft) 97,37 %
15.04.2017 01:50 8,5 C 83 % 1015,0 hPa 0,0 l/m 0,0 km/h (0 Bft) S 180 0 min 0,000 mm 0,0 UV-I 0 W/m 5,8 C 8,5 C 3,2 km/h (1 Bft) 96,49 %
15.04.2017 01:55 8,2 C 83 % 1015,0 hPa 0,0 l/m 0,0 km/h (0 Bft) S 180 0 min 0,000 mm 0,0 UV-I 0 W/m 5,5 C 8,2 C 1,6 km/h (1 Bft) 99,12 %
15.04.2017 02:00 7,9 C 84 % 1015,1 hPa 0,0 l/m 0,0 km/h (0 Bft) S 180 0 min 0,000 mm 0,0 UV-I 0 W/m 5,4 C 7,9 C 1,6 km/h (1 Bft) 100,00 %
15.04.2017 02:05 7,7 C 86 % 1015,2 hPa 0,0 l/m 1,6 km/h (1 Bft) S 180 0 min 0,000 mm 0,0 UV-I 0 W/m 5,5 C 7,7 C 3,2 km/h (1 Bft) 100,00 %
15.04.2017 02:10 7,6 C 86 % 1015,1 hPa 0,0 l/m 1,6 km/h (1 Bft) S 180 0 min 0,000 mm 0,0 UV-I 0 W/m 5,4 C 7,6 C 3,2 km/h (1 Bft) 98,25 %
15.04.2017 02:15 7,3 C 86 % 1015,0 hPa 0,0 l/m 1,6 km/h (1 Bft) S 180 0 min 0,000 mm 0,0 UV-I 0 W/m 5,1 C 7,3 C 4,8 km/h (1 Bft) 97,37 %
15.04.2017 02:20 7,2 C 88 % 1014,9 hPa 0,0 l/m 1,6 km/h (1 Bft) S 180 0 min 0,000 mm 0,0 UV-I 0 W/m 5,3 C 7,2 C 4,8 km/h (1 Bft) 99,12 %
15.04.2017 02:25 7,4 C 88 % 1014,9 hPa 0,0 l/m 1,6 km/h (1 Bft) S 180 0 min 0,000 mm 0,0 UV-I 0 W/m 5,5 C 7,4 C 3,2 km/h (1 Bft) 100,00 %
15.04.2017 02:30 7,7 C 86 % 1014,9 hPa 0,0 l/m 1,6 km/h (1 Bft) S 180 0 min 0,000 mm 0,0 UV-I 0 W/m 5,5 C 7,7 C 4,8 km/h (1 Bft) 94,74 %
15.04.2017 02:35 7,7 C 86 % 1014,8 hPa 0,0 l/m 4,8 km/h (1 Bft) S 180 0 min 0,000 mm 0,0 UV-I 0 W/m 5,5 C 7,7 C 6,4 km/h (2 Bft) 100,00 %
15.04.2017 02:40 7,6 C 86 % 1014,8 hPa 0,0 l/m 3,2 km/h (1 Bft) S 180 0 min 0,000 mm 0,0 UV-I 0 W/m 5,4 C 7,6 C 6,4 km/h (2 Bft) 98,25 %
15.04.2017 02:45 7,3 C 86 % 1014,8 hPa 0,0 l/m 1,6 km/h (1 Bft) S 180 0 min 0,000 mm 0,0 UV-I 0 W/m 5,1 C 7,3 C 4,8 km/h (1 Bft) 96,49 %
15.04.2017 02:50 7,4 C 86 % 1014,8 hPa 0,0 l/m 3,2 km/h (1 Bft) S 180 0 min 0,000 mm 0,0 UV-I 0 W/m 5,2 C 7,4 C 6,4 km/h (2 Bft) 96,49 %
15.04.2017 02:55 7,3 C 86 % 1014,7 hPa 0,0 l/m 3,2 km/h (1 Bft) S 180 0 min 0,000 mm 0,0 UV-I 0 W/m 5,1 C 7,3 C 4,8 km/h (1 Bft) 95,61 %
15.04.2017 03:00 7,5 C 86 % 1014,8 hPa 0,0 l/m 4,8 km/h (1 Bft) S 180 0 min 0,000 mm 0,0 UV-I 0 W/m 5,3 C 7,5 C 6,4 km/h (2 Bft) 95,61 %
15.04.2017 03:05 7,6 C 86 % 1014,8 hPa 0,0 l/m 4,8 km/h (1 Bft) S 180 0 min 0,000 mm 0,0 UV-I 0 W/m 5,4 C 7,6 C 8,0 km/h (2 Bft) 95,61 %
15.04.2017 03:10 7,6 C 86 % 1014,8 hPa 0,0 l/m 4,8 km/h (1 Bft) S 180 0 min 0,000 mm 0,0 UV-I 0 W/m 5,4 C 7,6 C 8,0 km/h (2 Bft) 94,74 %
15.04.2017 03:15 7,7 C 86 % 1014,8 hPa 0,0 l/m 4,8 km/h (1 Bft) S-SW 202 0 min 0,000 mm 0,0 UV-I 0 W/m 5,5 C 7,7 C 8,0 km/h (2 Bft) 97,37 %
15.04.2017 03:20 7,7 C 86 % 1014,8 hPa 0,0 l/m 4,8 km/h (1 Bft) S-SW 202 0 min 0,000 mm 0,0 UV-I 0 W/m 5,5 C 7,7 C 6,4 km/h (2 Bft) 98,25 %
15.04.2017 03:25 7,8 C 85 % 1014,8 hPa 0,0 l/m 4,8 km/h (1 Bft) S-SW 202 0 min 0,000 mm 0,0 UV-I 0 W/m 5,4 C 7,8 C 6,4 km/h (2 Bft) 100,00 %
15.04.2017 03:30 7,9 C 85 % 1014,7 hPa 0,0 l/m 3,2 km/h (1 Bft) S-SW 202 0 min 0,000 mm 0,0 UV-I 0 W/m 5,5 C 7,9 C 4,8 km/h (1 Bft) 100,00 %
15.04.2017 03:35 7,8 C 85 % 1014,6 hPa 0,0 l/m 1,6 km/h (1 Bft) S-SW 202 0 min 0,000 mm 0,0 UV-I 0 W/m 5,4 C 7,8 C 3,2 km/h (1 Bft) 97,37 %
15.04.2017 03:40 7,8 C 85 % 1014,7 hPa 0,0 l/m 3,2 km/h (1 Bft) S-SW 202 0 min 0,000 mm 0,0 UV-I 0 W/m 5,4 C 7,8 C 4,8 km/h (1 Bft) 100,00 %
15.04.2017 03:45 7,8 C 85 % 1014,8 hPa 0,0 l/m 4,8 km/h (1 Bft) S-SW 202 0 min 0,000 mm 0,0 UV-I 0 W/m 5,4 C 7,8 C 6,4 km/h (2 Bft) 100,00 %
15.04.2017 03:50 7,8 C 86 % 1014,7 hPa 0,0 l/m 3,2 km/h (1 Bft) S-SW 202 0 min 0,000 mm 0,0 UV-I 0 W/m 5,6 C 7,8 C 8,0 km/h (2 Bft) 100,00 %
15.04.2017 03:55 7,9 C 85 % 1014,7 hPa 0,0 l/m 3,2 km/h (1 Bft) S-SW 202 0 min 0,000 mm 0,0 UV-I 0 W/m 5,5 C 7,9 C 4,8 km/h (1 Bft) 100,00 %
15.04.2017 04:00 7,9 C 85 % 1014,7 hPa 0,0 l/m 4,8 km/h (1 Bft) S-SW 202 0 min 0,000 mm 0,0 UV-I 0 W/m 5,5 C 7,9 C 6,4 km/h (2 Bft) 98,25 %
15.04.2017 04:05 7,9 C 85 % 1014,7 hPa 0,0 l/m 3,2 km/h (1 Bft) S-SW 202 0 min 0,000 mm 0,0 UV-I 0 W/m 5,5 C 7,9 C 6,4 km/h (2 Bft) 100,00 %
15.04.2017 04:10 7,9 C 85 % 1014,7 hPa 0,0 l/m 4,8 km/h (1 Bft) S-SW 202 0 min 0,000 mm 0,0 UV-I 0 W/m 5,5 C 7,9 C 8,0 km/h (2 Bft) 100,00 %
15.04.2017 04:15 8,0 C 85 % 1014,7 hPa 0,0 l/m 4,8 km/h (1 Bft) SW 225 0 min 0,000 mm 0,0 UV-I 0 W/m 5,6 C 8,0 C 8,0 km/h (2 Bft) 98,25 %
15.04.2017 04:20 8,1 C 85 % 1014,7 hPa 0,0 l/m 4,8 km/h (1 Bft) SW 225 0 min 0,000 mm 0,0 UV-I 0 W/m 5,7 C 8,1 C 9,7 km/h (2 Bft) 98,25 %
15.04.2017 04:25 8,1 C 84 % 1014,6 hPa 0,0 l/m 3,2 km/h (1 Bft) SW 225 0 min 0,000 mm 0,0 UV-I 0 W/m 5,6 C 8,1 C 9,7 km/h (2 Bft) 98,25 %
15.04.2017 04:30 8,1 C 84 % 1014,6 hPa 0,0 l/m 1,6 km/h (1 Bft) SW 225 0 min 0,000 mm 0,0 UV-I 0 W/m 5,6 C 8,1 C 4,8 km/h (1 Bft) 96,49 %
15.04.2017 04:35 7,9 C 84 % 1014,6 hPa 0,0 l/m 3,2 km/h (1 Bft) SW 225 0 min 0,000 mm 0,0 UV-I 0 W/m 5,4 C 7,9 C 4,8 km/h (1 Bft) 96,49 %
15.04.2017 04:40 7,7 C 86 % 1014,7 hPa 0,0 l/m 1,6 km/h (1 Bft) SW 225 0 min 0,000 mm 0,0 UV-I 0 W/m 5,5 C 7,7 C 4,8 km/h (1 Bft) 100,00 %
15.04.2017 04:45 7,6 C 87 % 1014,7 hPa 0,0 l/m 0,0 km/h (0 Bft) W-SW 247 0 min 0,000 mm 0,0 UV-I 0 W/m 5,6 C 7,6 C 3,2 km/h (1 Bft) 99,12 %
15.04.2017 04:50 7,5 C 87 % 1014,7 hPa 0,0 l/m 0,0 km/h (0 Bft) W-SW 247 0 min 0,000 mm 0,0 UV-I 0 W/m 5,5 C 7,5 C 1,6 km/h (1 Bft) 99,12 %
15.04.2017 04:55 7,5 C 88 % 1014,8 hPa 0,0 l/m 0,0 km/h (0 Bft) W-SW 247 0 min 0,000 mm 0,0 UV-I 0 W/m 5,6 C 7,5 C 1,6 km/h (1 Bft) 99,12 %
15.04.2017 05:00 7,6 C 88 % 1014,8 hPa 0,0 l/m 0,0 km/h (0 Bft) W-SW 247 0 min 0,000 mm 0,0 UV-I 0 W/m 5,7 C 7,6 C 1,6 km/h (1 Bft) 97,37 %
15.04.2017 05:05 7,7 C 87 % 1014,7 hPa 0,0 l/m 3,2 km/h (1 Bft) SW 225 0 min 0,000 mm 0,0 UV-I 0 W/m 5,7 C 7,7 C 8,0 km/h (2 Bft) 98,25 %
15.04.2017 05:10 7,8 C 87 % 1014,7 hPa 0,0 l/m 3,2 km/h (1 Bft) SW 225 0 min 0,000 mm 0,0 UV-I 0 W/m 5,8 C 7,8 C 6,4 km/h (2 Bft) 93,86 %
15.04.2017 05:15 8,0 C 86 % 1014,5 hPa 0,0 l/m 6,4 km/h (2 Bft) W-SW 247 0 min 0,000 mm 0,0 UV-I 0 W/m 5,8 C 8,0 C 11,3 km/h (2 Bft) 96,49 %
15.04.2017 05:20 8,2 C 85 % 1014,5 hPa 0,0 l/m 6,4 km/h (2 Bft) W-SW 247 0 min 0,000 mm 0,0 UV-I 0 W/m 5,8 C 8,2 C 11,3 km/h (2 Bft) 97,37 %
15.04.2017 05:25 8,3 C 84 % 1014,4 hPa 0,0 l/m 4,8 km/h (1 Bft) W-SW 247 0 min 0,000 mm 0,0 UV-I 0 W/m 5,8 C 8,3 C 8,0 km/h (2 Bft) 96,49 %
15.04.2017 05:30 8,3 C 84 % 1014,5 hPa 0,0 l/m 4,8 km/h (1 Bft) W-SW 247 0 min 0,000 mm 0,0 UV-I 0 W/m 5,8 C 8,3 C 8,0 km/h (2 Bft) 99,12 %
15.04.2017 05:35 8,3 C 84 % 1014,4 hPa 0,0 l/m 6,4 km/h (2 Bft) SW 225 0 min 0,000 mm 0,0 UV-I 0 W/m 5,8 C 8,3 C 9,7 km/h (2 Bft) 95,61 %
15.04.2017 05:40 8,3 C 84 % 1014,4 hPa 0,0 l/m 6,4 km/h (2 Bft) SW 225 0 min 0,000 mm 0,0 UV-I 0 W/m 5,8 C 8,3 C 9,7 km/h (2 Bft) 98,25 %
15.04.2017 05:45 8,3 C 83 % 1014,4 hPa 0,0 l/m 8,0 km/h (2 Bft) SW 225 0 min 0,000 mm 0,0 UV-I 0 W/m 5,6 C 7,1 C 12,9 km/h (3 Bft) 97,37 %
15.04.2017 05:50 8,4 C 83 % 1014,4 hPa 0,0 l/m 8,0 km/h (2 Bft) W-SW 247 0 min 0,000 mm 0,0 UV-I 0 W/m 5,7 C 7,2 C 12,9 km/h (3 Bft) 98,25 %
15.04.2017 05:55 8,4 C 83 % 1014,4 hPa 0,0 l/m 6,4 km/h (2 Bft) W-SW 247 0 min 0,000 mm 0,0 UV-I 0 W/m 5,7 C 8,4 C 11,3 km/h (2 Bft) 98,25 %
15.04.2017 06:00 8,4 C 82 % 1014,4 hPa 0,0 l/m 6,4 km/h (2 Bft) W-SW 247 0 min 0,000 mm 0,0 UV-I 0 W/m 5,5 C 8,4 C 11,3 km/h (2 Bft) 100,00 %
15.04.2017 06:05 8,4 C 82 % 1014,4 hPa 0,0 l/m 6,4 km/h (2 Bft) W-SW 247 0 min 0,000 mm 0,0 UV-I 0 W/m 5,5 C 8,4 C 12,9 km/h (3 Bft) 97,37 %
15.04.2017 06:10 8,4 C 83 % 1014,4 hPa 0,0 l/m 6,4 km/h (2 Bft) W-SW 247 0 min 0,000 mm 0,0 UV-I 0 W/m 5,7 C 8,4 C 9,7 km/h (2 Bft) 96,49 %
15.04.2017 06:15 8,3 C 83 % 1014,4 hPa 0,0 l/m 4,8 km/h (1 Bft) SW 225 0 min 0,000 mm 0,0 UV-I 5 W/m 5,6 C 8,3 C 9,7 km/h (2 Bft) 97,37 %
15.04.2017 06:20 8,3 C 83 % 1014,4 hPa 0,0 l/m 4,8 km/h (1 Bft) SW 225 0 min 0,000 mm 0,0 UV-I 8 W/m 5,6 C 8,3 C 6,4 km/h (2 Bft) 97,37 %
15.04.2017 06:25 8,2 C 83 % 1014,4 hPa 0,0 l/m 3,2 km/h (1 Bft) SW 225 5 min 0,000 mm 0,0 UV-I 11 W/m 5,5 C 8,2 C 6,4 km/h (2 Bft) 100,00 %
15.04.2017 06:30 8,0 C 84 % 1014,4 hPa 0,0 l/m 4,8 km/h (1 Bft) SW 225 0 min 0,000 mm 0,0 UV-I 15 W/m 5,5 C 8,0 C 8,0 km/h (2 Bft) 99,12 %
15.04.2017 06:35 7,9 C 84 % 1014,3 hPa 0,0 l/m 4,8 km/h (1 Bft) SW 225 0 min 0,000 mm 0,0 UV-I 19 W/m 5,4 C 7,9 C 6,4 km/h (2 Bft) 100,00 %
15.04.2017 06:40 7,7 C 85 % 1014,3 hPa 0,0 l/m 3,2 km/h (1 Bft) SW 225 0 min 0,000 mm 0,0 UV-I 23 W/m 5,3 C 7,7 C 6,4 km/h (2 Bft) 99,12 %
15.04.2017 06:45 7,7 C 85 % 1014,4 hPa 0,0 l/m 3,2 km/h (1 Bft) SW 225 0 min 0,000 mm 0,0 UV-I 31 W/m 5,3 C 7,7 C 6,4 km/h (2 Bft) 97,37 %
15.04.2017 06:50 7,6 C 86 % 1014,5 hPa 0,0 l/m 3,2 km/h (1 Bft) SW 225 0 min 0,000 mm 0,0 UV-I 34 W/m 5,4 C 7,6 C 4,8 km/h (1 Bft) 96,49 %
15.04.2017 06:55 7,6 C 86 % 1014,5 hPa 0,0 l/m 3,2 km/h (1 Bft) SW 225 0 min 0,000 mm 0,0 UV-I 37 W/m 5,4 C 7,6 C 4,8 km/h (1 Bft) 97,37 %
15.04.2017 07:00 7,7 C 86 % 1014,5 hPa 0,0 l/m 3,2 km/h (1 Bft) SW 225 0 min 0,025 mm 0,0 UV-I 36 W/m 5,5 C 7,7 C 6,4 km/h (2 Bft) 92,98 %
15.04.2017 07:05 7,7 C 86 % 1014,5 hPa 0,0 l/m 3,2 km/h (1 Bft) SW 225 0 min 0,000 mm 0,0 UV-I 39 W/m 5,5 C 7,7 C 4,8 km/h (1 Bft) 91,23 %
15.04.2017 07:10 7,8 C 86 % 1014,6 hPa 0,0 l/m 3,2 km/h (1 Bft) SW 225 0 min 0,000 mm 0,0 UV-I 35 W/m 5,6 C 7,8 C 6,4 km/h (2 Bft) 93,86 %
15.04.2017 07:15 7,8 C 85 % 1014,6 hPa 0,0 l/m 4,8 km/h (1 Bft) SW 225 0 min 0,000 mm 0,0 UV-I 43 W/m 5,4 C 7,8 C 6,4 km/h (2 Bft) 95,61 %
15.04.2017 07:20 7,9 C 85 % 1014,6 hPa 0,0 l/m 3,2 km/h (1 Bft) SW 225 0 min 0,000 mm 0,0 UV-I 51 W/m 5,5 C 7,9 C 8,0 km/h (2 Bft) 94,74 %
15.04.2017 07:25 8,0 C 85 % 1014,6 hPa 0,0 l/m 3,2 km/h (1 Bft) SW 225 0 min 0,000 mm 0,0 UV-I 62 W/m 5,6 C 8,0 C 4,8 km/h (1 Bft) 95,61 %
15.04.2017 07:30 8,1 C 85 % 1014,6 hPa 0,0 l/m 3,2 km/h (1 Bft) SW 225 0 min 0,000 mm 0,0 UV-I 70 W/m 5,7 C 8,1 C 4,8 km/h (1 Bft) 93,86 %
15.04.2017 07:35 8,1 C 84 % 1014,6 hPa 0,0 l/m 3,2 km/h (1 Bft) SW 225 0 min 0,000 mm 0,0 UV-I 75 W/m 5,6 C 8,1 C 6,4 km/h (2 Bft) 99,12 %
15.04.2017 07:40 8,1 C 84 % 1014,6 hPa 0,0 l/m 1,6 km/h (1 Bft) SW 225 0 min 0,000 mm 0,0 UV-I 94 W/m 5,6 C 8,1 C 4,8 km/h (1 Bft) 98,25 %
15.04.2017 07:45 8,2 C 84 % 1014,6 hPa 0,0 l/m 1,6 km/h (1 Bft) SW 225 0 min 0,000 mm 0,0 UV-I 101 W/m 5,7 C 8,2 C 4,8 km/h (1 Bft) 97,37 %
15.04.2017 07:50 8,3 C 85 % 1014,6 hPa 0,0 l/m 3,2 km/h (1 Bft) SW 225 0 min 0,000 mm 0,0 UV-I 121 W/m 5,9 C 8,3 C 4,8 km/h (1 Bft) 98,25 %
15.04.2017 07:55 8,4 C 84 % 1014,7 hPa 0,0 l/m 3,2 km/h (1 Bft) SW 225 0 min 0,000 mm 0,0 UV-I 118 W/m 5,9 C 8,4 C 4,8 km/h (1 Bft) 96,49 %
15.04.2017 08:00 8,6 C 84 % 1014,6 hPa 0,0 l/m 3,2 km/h (1 Bft) SW 225 0 min 0,051 mm 0,0 UV-I 135 W/m 6,1 C 8,6 C 6,4 km/h (2 Bft) 94,74 %
15.04.2017 08:05 8,7 C 83 % 1014,6 hPa 0,0 l/m 3,2 km/h (1 Bft) SW 225 0 min 0,000 mm 0,0 UV-I 139 W/m 6,0 C 8,7 C 6,4 km/h (2 Bft) 96,49 %
15.04.2017 08:10 8,8 C 83 % 1014,7 hPa 0,0 l/m 4,8 km/h (1 Bft) SW 225 0 min 0,000 mm 0,0 UV-I 145 W/m 6,1 C 8,8 C 8,0 km/h (2 Bft) 98,25 %
15.04.2017 08:15 8,9 C 83 % 1014,7 hPa 0,0 l/m 4,8 km/h (1 Bft) SW 225 0 min 0,000 mm 0,0 UV-I 145 W/m 6,2 C 8,9 C 9,7 km/h (2 Bft) 95,61 %
15.04.2017 08:20 9,1 C 81 % 1014,6 hPa 0,0 l/m 4,8 km/h (1 Bft) SW 225 0 min 0,000 mm 0,0 UV-I 142 W/m 6,0 C 9,1 C 9,7 km/h (2 Bft) 96,49 %
15.04.2017 08:25 9,1 C 81 % 1014,6 hPa 0,0 l/m 4,8 km/h (1 Bft) S-SW 202 0 min 0,000 mm 0,0 UV-I 141 W/m 6,0 C 9,1 C 8,0 km/h (2 Bft) 95,61 %
15.04.2017 08:30 9,2 C 81 % 1014,6 hPa 0,0 l/m 4,8 km/h (1 Bft) S-SW 202 0 min 0,000 mm 0,4 UV-I 153 W/m 6,1 C 9,2 C 8,0 km/h (2 Bft) 95,61 %
15.04.2017 08:35 9,3 C 80 % 1014,6 hPa 0,0 l/m 4,8 km/h (1 Bft) S-SW 202 0 min 0,000 mm 0,6 UV-I 169 W/m 6,0 C 9,3 C 9,7 km/h (2 Bft) 97,37 %
15.04.2017 08:40 9,4 C 80 % 1014,6 hPa 0,0 l/m 6,4 km/h (2 Bft) S-SW 202 5 min 0,000 mm 0,6 UV-I 252 W/m 6,1 C 9,4 C 11,3 km/h (2 Bft) 100,00 %
15.04.2017 08:45 9,8 C 81 % 1014,5 hPa 0,0 l/m 8,0 km/h (2 Bft) SW 225 5 min 0,000 mm 0,6 UV-I 249 W/m 6,7 C 8,6 C 12,9 km/h (3 Bft) 100,00 %
15.04.2017 08:50 10,0 C 79 % 1014,5 hPa 0,0 l/m 6,4 km/h (2 Bft) SW 225 0 min 0,000 mm 0,1 UV-I 153 W/m 6,5 C 10,0 C 11,3 km/h (2 Bft) 99,12 %
15.04.2017 08:55 10,1 C 78 % 1014,6 hPa 0,0 l/m 6,4 km/h (2 Bft) SW 225 0 min 0,000 mm 0,0 UV-I 134 W/m 6,4 C 10,1 C 14,5 km/h (3 Bft) 94,74 %
15.04.2017 09:00 10,2 C 78 % 1014,6 hPa 0,0 l/m 6,4 km/h (2 Bft) SW 225 0 min 0,076 mm 0,0 UV-I 122 W/m 6,5 C 10,2 C 11,3 km/h (2 Bft) 99,12 %
15.04.2017 09:05 10,2 C 78 % 1014,5 hPa 0,0 l/m 6,4 km/h (2 Bft) W-SW 247 0 min 0,000 mm 0,0 UV-I 99 W/m 6,5 C 10,2 C 11,3 km/h (2 Bft) 97,37 %
15.04.2017 09:10 10,2 C 79 % 1014,5 hPa 0,0 l/m 6,4 km/h (2 Bft) W-SW 247 0 min 0,000 mm 0,3 UV-I 132 W/m 6,7 C 10,2 C 9,7 km/h (2 Bft) 95,61 %
15.04.2017 09:15 10,2 C 79 % 1014,5 hPa 0,0 l/m 6,4 km/h (2 Bft) SW 225 0 min 0,000 mm 0,6 UV-I 167 W/m 6,7 C 10,2 C 9,7 km/h (2 Bft) 96,49 %
15.04.2017 09:20 10,4 C 79 % 1014,5 hPa 0,0 l/m 4,8 km/h (1 Bft) SW 225 0 min 0,000 mm 0,8 UV-I 226 W/m 6,9 C 10,4 C 8,0 km/h (2 Bft) 98,25 %
15.04.2017 09:25 10,6 C 78 % 1014,4 hPa 0,0 l/m 4,8 km/h (1 Bft) S-SW 202 0 min 0,000 mm 0,8 UV-I 228 W/m 6,9 C 10,6 C 9,7 km/h (2 Bft) 96,49 %
15.04.2017 09:30 10,8 C 76 % 1014,5 hPa 0,0 l/m 8,0 km/h (2 Bft) SW 225 0 min 0,000 mm 0,7 UV-I 188 W/m 6,7 C 9,7 C 12,9 km/h (3 Bft) 98,25 %
15.04.2017 09:35 11,0 C 77 % 1014,5 hPa 0,0 l/m 6,4 km/h (2 Bft) SW 225 0 min 0,000 mm 0,5 UV-I 144 W/m 7,1 C 11,0 C 11,3 km/h (2 Bft) 99,12 %
15.04.2017 09:40 11,1 C 76 % 1014,5 hPa 0,0 l/m 6,4 km/h (2 Bft) S-SW 202 0 min 0,000 mm 0,5 UV-I 136 W/m 7,0 C 11,1 C 9,7 km/h (2 Bft) 93,86 %
15.04.2017 09:45 11,1 C 75 % 1014,5 hPa 0,0 l/m 6,4 km/h (2 Bft) SW 225 0 min 0,000 mm 0,5 UV-I 124 W/m 6,8 C 11,1 C 16,1 km/h (3 Bft) 95,61 %
15.04.2017 09:52 11,2 C 73 % 1014,5 hPa 0,0 l/m 10,4 km/h (2 Bft) S-SW 202 0 min 0,000 mm 0,0 UV-I 104 W/m 6,5 C 8,7 C 14,5 km/h (3 Bft) 98,08 %
15.04.2017 09:54 11,2 C 72 % 1014,4 hPa 0,0 l/m 11,5 km/h (2 Bft) W-SW 245 0 min 0,000 mm 0,4 UV-I 106 W/m 6,3 C 8,1 C 19,3 km/h (3 Bft) 100,00 %
15.04.2017 09:56 11,2 C 72 % 1014,5 hPa 0,0 l/m 8,6 km/h (2 Bft) W-SW 246 0 min 0,000 mm 0,5 UV-I 114 W/m 6,3 C 9,7 C 11,3 km/h (2 Bft) 94,00 %
15.04.2017 09:58 11,2 C 72 % 1014,5 hPa 0,0 l/m 9,2 km/h (2 Bft) SW 229 0 min 0,000 mm 0,5 UV-I 119 W/m 6,3 C 9,4 C 14,5 km/h (3 Bft) 96,30 %
15.04.2017 10:00 11,3 C 73 % 1014,5 hPa 0,0 l/m 7,0 km/h (2 Bft) S-SW 207 0 min 0,052 mm 0,5 UV-I 119 W/m 6,6 C 10,9 C 9,7 km/h (2 Bft) 94,03 %
15.04.2017 10:02 11,3 C 73 % 1014,5 hPa 0,0 l/m 8,4 km/h (2 Bft) S-SW 208 0 min 0,000 mm 0,5 UV-I 111 W/m 6,6 C 10,0 C 12,9 km/h (3 Bft) 97,78 %
15.04.2017 10:04 11,3 C 72 % 1014,5 hPa 0,0 l/m 6,8 km/h (2 Bft) S-SW 204 0 min 0,000 mm 0,1 UV-I 104 W/m 6,4 C 11,0 C 11,3 km/h (2 Bft) 96,00 %
15.04.2017 10:06 11,3 C 73 % 1014,5 hPa 0,0 l/m 9,2 km/h (2 Bft) SW 219 0 min 0,000 mm 0,0 UV-I 100 W/m 6,6 C 9,5 C 12,9 km/h (3 Bft) 95,74 %
15.04.2017 10:08 11,3 C 72 % 1014,4 hPa 0,0 l/m 9,6 km/h (2 Bft) SW 216 0 min 0,000 mm 0,0 UV-I 101 W/m 6,4 C 9,3 C 14,5 km/h (3 Bft) 97,37 %
15.04.2017 10:10 11,3 C 72 % 1014,4 hPa 0,0 l/m 10,5 km/h (2 Bft) SW 235 0 min 0,000 mm 0,0 UV-I 103 W/m 6,4 C 8,8 C 16,1 km/h (3 Bft) 96,43 %
15.04.2017 10:12 11,3 C 72 % 1014,4 hPa 0,0 l/m 9,2 km/h (2 Bft) SW 219 0 min 0,000 mm 0,0 UV-I 101 W/m 6,4 C 9,5 C 12,9 km/h (3 Bft) 97,56 %
15.04.2017 10:14 11,4 C 71 % 1014,4 hPa 0,0 l/m 10,3 km/h (2 Bft) W-SW 238 0 min 0,000 mm 0,3 UV-I 104 W/m 6,3 C 9,0 C 14,5 km/h (3 Bft) 100,00 %
15.04.2017 10:16 11,4 C 70 % 1014,4 hPa 0,0 l/m 14,6 km/h (3 Bft) SW 220 0 min 0,000 mm 0,5 UV-I 110 W/m 6,1 C 7,0 C 20,9 km/h (4 Bft) 95,45 %
15.04.2017 10:18 11,4 C 71 % 1014,4 hPa 0,0 l/m 10,1 km/h (2 Bft) S-SW 211 0 min 0,000 mm 0,5 UV-I 112 W/m 6,3 C 9,1 C 17,7 km/h (3 Bft) 93,22 %
15.04.2017 10:20 11,4 C 71 % 1014,4 hPa 0,0 l/m 10,4 km/h (2 Bft) W-SW 237 0 min 0,000 mm 0,4 UV-I 106 W/m 6,3 C 8,9 C 16,1 km/h (3 Bft) 93,62 %
15.04.2017 10:22 11,4 C 70 % 1014,4 hPa 0,0 l/m 12,4 km/h (3 Bft) W-SW 239 0 min 0,000 mm 0,0 UV-I 89 W/m 6,1 C 7,9 C 19,3 km/h (3 Bft) 97,37 %
15.04.2017 10:24 11,5 C 70 % 1014,4 hPa 0,0 l/m 14,4 km/h (3 Bft) SW 225 0 min 0,000 mm 0,0 UV-I 74 W/m 6,2 C 7,2 C 20,9 km/h (4 Bft) 98,21 %
15.04.2017 10:26 11,4 C 71 % 1014,4 hPa 0,0 l/m 12,6 km/h (3 Bft) SW 217 0 min 0,000 mm 0,0 UV-I 68 W/m 6,3 C 7,8 C 19,3 km/h (3 Bft) 94,74 %
15.04.2017 10:28 11,4 C 70 % 1014,4 hPa 0,0 l/m 11,8 km/h (2 Bft) SW 234 0 min 0,000 mm 0,0 UV-I 64 W/m 6,1 C 8,2 C 17,7 km/h (3 Bft) 98,21 %
15.04.2017 10:30 11,4 C 70 % 1014,5 hPa 0,0 l/m 12,9 km/h (3 Bft) W-SW 250 0 min 0,000 mm 0,0 UV-I 61 W/m 6,1 C 7,7 C 17,7 km/h (3 Bft) 93,18 %
15.04.2017 10:32 11,4 C 70 % 1014,5 hPa 0,0 l/m 12,3 km/h (3 Bft) SW 230 0 min 0,000 mm 0,0 UV-I 62 W/m 6,1 C 8,0 C 17,7 km/h (3 Bft) 100,00 %
15.04.2017 10:34 11,4 C 70 % 1014,5 hPa 0,0 l/m 16,9 km/h (3 Bft) W-SW 240 0 min 0,000 mm 0,0 UV-I 67 W/m 6,1 C 6,1 C 24,1 km/h (4 Bft) 89,36 %
15.04.2017 10:36 11,4 C 70 % 1014,5 hPa 0,0 l/m 15,2 km/h (3 Bft) S 183 0 min 0,000 mm 0,0 UV-I 81 W/m 6,1 C 6,8 C 20,9 km/h (4 Bft) 94,64 %
15.04.2017 10:38 11,4 C 70 % 1014,6 hPa 0,0 l/m 13,5 km/h (3 Bft) W 259 0 min 0,000 mm 0,5 UV-I 104 W/m 6,1 C 7,4 C 24,1 km/h (4 Bft) 93,18 %
15.04.2017 10:40 11,4 C 69 % 1014,6 hPa 0,0 l/m 11,1 km/h (2 Bft) SW 236 0 min 0,000 mm 0,6 UV-I 127 W/m 5,9 C 8,6 C 17,7 km/h (3 Bft) 93,33 %
15.04.2017 10:42 11,5 C 69 % 1014,6 hPa 0,0 l/m 13,6 km/h (3 Bft) SW 214 0 min 0,000 mm 0,7 UV-I 140 W/m 6,0 C 7,5 C 22,5 km/h (4 Bft) 96,15 %
15.04.2017 10:44 11,5 C 69 % 1014,5 hPa 0,0 l/m 13,3 km/h (3 Bft) W-SW 250 0 min 0,000 mm 0,7 UV-I 134 W/m 6,0 C 7,7 C 20,9 km/h (4 Bft) 97,44 %
15.04.2017 10:46 11,6 C 69 % 1014,5 hPa 0,0 l/m 11,8 km/h (2 Bft) SW 222 0 min 0,000 mm 0,6 UV-I 126 W/m 6,1 C 8,5 C 17,7 km/h (3 Bft) 96,23 %
15.04.2017 10:48 11,6 C 69 % 1014,5 hPa 0,0 l/m 10,0 km/h (2 Bft) S-SW 209 0 min 0,000 mm 0,6 UV-I 129 W/m 6,1 C 9,4 C 16,1 km/h (3 Bft) 95,74 %
15.04.2017 10:50 11,6 C 69 % 1014,5 hPa 0,0 l/m 12,0 km/h (2 Bft) W-SW 239 0 min 0,000 mm 0,7 UV-I 134 W/m 6,1 C 8,4 C 17,7 km/h (3 Bft) 97,37 %
15.04.2017 10:52 11,6 C 69 % 1014,6 hPa 0,0 l/m 12,3 km/h (3 Bft) SW 231 0 min 0,000 mm 0,7 UV-I 139 W/m 6,1 C 8,2 C 19,3 km/h (3 Bft) 97,56 %
15.04.2017 10:54 11,6 C 69 % 1014,6 hPa 0,0 l/m 14,2 km/h (3 Bft) SW 232 0 min 0,000 mm 0,7 UV-I 142 W/m 6,1 C 7,4 C 22,5 km/h (4 Bft) 96,23 %
15.04.2017 10:56 11,6 C 69 % 1014,6 hPa 0,0 l/m 11,2 km/h (2 Bft) W-SW 245 0 min 0,000 mm 0,8 UV-I 157 W/m 6,1 C 8,7 C 19,3 km/h (3 Bft) 95,45 %
15.04.2017 10:58 11,7 C 69 % 1014,6 hPa 0,0 l/m 10,4 km/h (2 Bft) W-SW 240 0 min 0,000 mm 0,9 UV-I 175 W/m 6,2 C 9,3 C 14,5 km/h (3 Bft) 98,31 %
15.04.2017 11:00 11,7 C 69 % 1014,6 hPa 0,0 l/m 9,4 km/h (2 Bft) W-SW 242 0 min 0,102 mm 1,0 UV-I 203 W/m 6,2 C 9,8 C 12,9 km/h (3 Bft) 100,00 %
15.04.2017 11:02 11,8 C 69 % 1014,7 hPa 0,0 l/m 11,3 km/h (2 Bft) S-SW 211 0 min 0,000 mm 1,2 UV-I 233 W/m 6,3 C 8,9 C 16,1 km/h (3 Bft) 100,00 %
15.04.2017 11:04 11,8 C 69 % 1014,6 hPa 0,0 l/m 11,1 km/h (2 Bft) SW 236 0 min 0,000 mm 1,3 UV-I 249 W/m 6,3 C 9,0 C 17,7 km/h (3 Bft) 97,73 %
15.04.2017 11:06 11,9 C 69 % 1014,6 hPa 0,0 l/m 8,4 km/h (2 Bft) W-SW 240 0 min 0,000 mm 1,2 UV-I 247 W/m 6,4 C 10,6 C 12,9 km/h (3 Bft) 92,86 %
15.04.2017 11:09 12,1 C 68 % 1014,7 hPa 0,0 l/m 7,8 km/h (2 Bft) SW 221 0 min 0,000 mm 1,3 UV-I 260 W/m 6,4 C 11,2 C 12,9 km/h (3 Bft) 93,85 %
15.04.2017 11:10 12,1 C 69 % 1014,7 hPa 0,0 l/m 13,1 km/h (3 Bft) SW 234 0 min 0,000 mm 1,5 UV-I 300 W/m 6,6 C 8,4 C 17,7 km/h (3 Bft) 91,30 %
15.04.2017 11:12 12,2 C 68 % 1014,6 hPa 0,0 l/m 8,3 km/h (2 Bft) SW 234 0 min 0,000 mm 1,6 UV-I 342 W/m 6,5 C 11,0 C 19,3 km/h (3 Bft) 92,68 %
15.04.2017 11:14 12,3 C 68 % 1014,7 hPa 0,0 l/m 8,3 km/h (2 Bft) S-SW 206 0 min 0,000 mm 1,8 UV-I 380 W/m 6,6 C 11,1 C 14,5 km/h (3 Bft) 94,64 %
15.04.2017 11:16 12,4 C 68 % 1014,7 hPa 0,0 l/m 10,8 km/h (2 Bft) S-SW 205 2 min 0,000 mm 2,0 UV-I 411 W/m 6,7 C 9,8 C 17,7 km/h (3 Bft) 97,44 %
15.04.2017 11:18 12,5 C 66 % 1014,6 hPa 0,0 l/m 12,4 km/h (3 Bft) S-SW 213 0 min 0,000 mm 1,9 UV-I 369 W/m 6,3 C 9,2 C 17,7 km/h (3 Bft) 96,15 %
15.04.2017 11:20 12,6 C 67 % 1014,6 hPa 0,0 l/m 9,7 km/h (2 Bft) SW 230 0 min 0,000 mm 2,1 UV-I 390 W/m 6,6 C 10,6 C 16,1 km/h (3 Bft) 95,83 %
15.04.2017 11:22 12,7 C 67 % 1014,7 hPa 0,0 l/m 10,2 km/h (2 Bft) W-SW 243 0 min 0,000 mm 2,1 UV-I 385 W/m 6,7 C 10,5 C 16,1 km/h (3 Bft) 96,00 %
15.04.2017 11:24 12,8 C 67 % 1014,7 hPa 0,0 l/m 10,8 km/h (2 Bft) SW 234 0 min 0,000 mm 2,1 UV-I 367 W/m 6,8 C 10,3 C 17,7 km/h (3 Bft) 97,37 %
15.04.2017 11:26 12,8 C 67 % 1014,6 hPa 0,0 l/m 9,2 km/h (2 Bft) W-SW 248 0 min 0,000 mm 2,1 UV-I 385 W/m 6,8 C 11,1 C 14,5 km/h (3 Bft) 95,45 %
15.04.2017 11:28 12,9 C 66 % 1014,5 hPa 0,0 l/m 10,3 km/h (2 Bft) SW 219 2 min 0,000 mm 2,4 UV-I 447 W/m 6,7 C 10,6 C 16,1 km/h (3 Bft) 96,43 %
15.04.2017 11:30 13,1 C 65 % 1014,5 hPa 0,0 l/m 11,2 km/h (2 Bft) W-SW 250 2 min 0,000 mm 2,8 UV-I 806 W/m 6,7 C 10,4 C 19,3 km/h (3 Bft) 96,00 %
15.04.2017 11:32 13,3 C 64 % 1014,5 hPa 0,0 l/m 11,7 km/h (2 Bft) S-SW 205 2 min 0,000 mm 3,3 UV-I 984 W/m 6,6 C 10,4 C 16,1 km/h (3 Bft) 95,12 %
15.04.2017 11:34 13,6 C 65 % 1014,4 hPa 0,0 l/m 11,3 km/h (2 Bft) S-SW 211 2 min 0,000 mm 3,1 UV-I 1008 W/m 7,1 C 11,0 C 17,7 km/h (3 Bft) 98,00 %
15.04.2017 11:36 13,7 C 63 % 1014,4 hPa 0,0 l/m 12,9 km/h (3 Bft) SW 228 2 min 0,000 mm 3,0 UV-I 1007 W/m 6,8 C 10,4 C 17,7 km/h (3 Bft) 94,00 %
15.04.2017 11:38 13,8 C 63 % 1014,4 hPa 0,0 l/m 9,6 km/h (2 Bft) W-SW 244 2 min 0,000 mm 2,3 UV-I 1007 W/m 6,9 C 12,0 C 19,3 km/h (3 Bft) 93,10 %
15.04.2017 11:40 13,8 C 62 % 1014,4 hPa 0,0 l/m 12,1 km/h (2 Bft) W-SW 255 2 min 0,000 mm 1,9 UV-I 442 W/m 6,6 C 10,8 C 17,7 km/h (3 Bft) 94,92 %
15.04.2017 11:42 13,9 C 62 % 1014,3 hPa 0,0 l/m 10,7 km/h (2 Bft) W-SW 246 0 min 0,000 mm 1,9 UV-I 378 W/m 6,7 C 11,6 C 20,9 km/h (4 Bft) 93,62 %
15.04.2017 11:44 13,8 C 61 % 1014,3 hPa 0,0 l/m 9,2 km/h (2 Bft) W 266 0 min 0,000 mm 1,4 UV-I 279 W/m 6,4 C 12,2 C 14,5 km/h (3 Bft) 97,56 %
15.04.2017 11:46 13,7 C 61 % 1014,3 hPa 0,0 l/m 7,0 km/h (2 Bft) W-SW 244 0 min 0,000 mm 1,1 UV-I 219 W/m 6,3 C 13,3 C 12,9 km/h (3 Bft) 95,74 %
15.04.2017 11:48 13,6 C 61 % 1014,4 hPa 0,0 l/m 13,0 km/h (3 Bft) SW 215 0 min 0,000 mm 1,2 UV-I 225 W/m 6,2 C 10,2 C 19,3 km/h (3 Bft) 94,00 %
15.04.2017 11:50 13,5 C 61 % 1014,4 hPa 0,0 l/m 14,4 km/h (3 Bft) W-SW 238 0 min 0,000 mm 1,4 UV-I 259 W/m 6,1 C 9,6 C 22,5 km/h (4 Bft) 97,56 %
15.04.2017 11:52 13,4 C 61 % 1014,2 hPa 0,0 l/m 11,1 km/h (2 Bft) S-SW 204 0 min 0,000 mm 1,6 UV-I 347 W/m 6,0 C 10,8 C 16,1 km/h (3 Bft) 96,23 %
15.04.2017 11:54 13,5 C 62 % 1014,2 hPa 0,0 l/m 11,4 km/h (2 Bft) W-NW 288 0 min 0,000 mm 1,4 UV-I 293 W/m 6,4 C 10,8 C 16,1 km/h (3 Bft) 95,24 %
15.04.2017 11:56 13,5 C 61 % 1014,2 hPa 0,0 l/m 13,0 km/h (3 Bft) W 259 0 min 0,000 mm 1,5 UV-I 284 W/m 6,1 C 10,1 C 24,1 km/h (4 Bft) 94,55 %
15.04.2017 11:58 13,6 C 61 % 1014,2 hPa 0,0 l/m 12,8 km/h (3 Bft) W 265 0 min 0,000 mm 1,7 UV-I 321 W/m 6,2 C 10,3 C 17,7 km/h (3 Bft) 89,74 %
15.04.2017 12:00 13,6 C 60 % 1014,1 hPa 0,0 l/m 14,9 km/h (3 Bft) W 263 0 min 0,254 mm 1,5 UV-I 281 W/m 6,0 C 9,5 C 27,4 km/h (4 Bft) 98,00 %
15.04.2017 12:02 13,7 C 61 % 1014,1 hPa 0,0 l/m 9,8 km/h (2 Bft) W-SW 244 0 min 0,000 mm 1,4 UV-I 264 W/m 6,3 C 11,8 C 16,1 km/h (3 Bft) 92,00 %
15.04.2017 12:04 13,7 C 60 % 1014,1 hPa 0,0 l/m 13,8 km/h (3 Bft) W-SW 238 0 min 0,000 mm 1,6 UV-I 292 W/m 6,1 C 10,1 C 19,3 km/h (3 Bft) 94,34 %
15.04.2017 12:06 13,8 C 61 % 1014,0 hPa 0,0 l/m 13,9 km/h (3 Bft) W-SW 248 0 min 0,000 mm 1,7 UV-I 315 W/m 6,4 C 10,1 C 22,5 km/h (4 Bft) 94,74 %
15.04.2017 12:08 13,8 C 60 % 1014,0 hPa 0,0 l/m 12,1 km/h (2 Bft) W 261 0 min 0,000 mm 1,7 UV-I 314 W/m 6,2 C 10,8 C 19,3 km/h (3 Bft) 95,45 %
15.04.2017 12:10 13,8 C 61 % 1014,0 hPa 0,0 l/m 7,6 km/h (2 Bft) W-SW 251 0 min 0,000 mm 1,2 UV-I 232 W/m 6,4 C 13,1 C 14,5 km/h (3 Bft) 96,23 %
15.04.2017 12:12 13,8 C 61 % 1013,9 hPa 0,0 l/m 7,8 km/h (2 Bft) W-SW 246 0 min 0,000 mm 1,0 UV-I 199 W/m 6,4 C 13,0 C 11,3 km/h (2 Bft) 93,18 %
15.04.2017 12:14 13,8 C 62 % 1013,9 hPa 0,0 l/m 8,9 km/h (2 Bft) W-SW 254 0 min 0,000 mm 1,0 UV-I 202 W/m 6,6 C 12,3 C 14,5 km/h (3 Bft) 95,74 %
15.04.2017 12:16 13,8 C 60 % 1014,0 hPa 0,0 l/m 12,0 km/h (2 Bft) W-SW 244 0 min 0,000 mm 1,1 UV-I 212 W/m 6,2 C 10,9 C 24,1 km/h (4 Bft) 90,00 %
15.04.2017 12:18 13,8 C 60 % 1014,0 hPa 0,0 l/m 15,8 km/h (3 Bft) W 279 0 min 0,000 mm 1,6 UV-I 262 W/m 6,2 C 9,5 C 24,1 km/h (4 Bft) 92,68 %
15.04.2017 12:20 13,9 C 61 % 1014,0 hPa 0,0 l/m 12,3 km/h (3 Bft) W-SW 242 2 min 0,000 mm 2,3 UV-I 425 W/m 6,5 C 10,9 C 20,9 km/h (4 Bft) 91,49 %
15.04.2017 12:22 14,1 C 60 % 1014,0 hPa 0,0 l/m 14,0 km/h (3 Bft) W 269 2 min 0,000 mm 2,7 UV-I 458 W/m 6,5 C 10,5 C 19,3 km/h (3 Bft) 92,00 %
15.04.2017 12:24 14,2 C 59 % 1013,9 hPa 0,0 l/m 14,6 km/h (3 Bft) SW 236 0 min 0,000 mm 2,2 UV-I 425 W/m 6,3 C 10,4 C 20,9 km/h (4 Bft) 92,68 %
15.04.2017 12:26 14,3 C 59 % 1013,8 hPa 0,0 l/m 13,4 km/h (3 Bft) W-SW 248 0 min 0,000 mm 2,1 UV-I 343 W/m 6,4 C 10,9 C 22,5 km/h (4 Bft) 95,45 %
15.04.2017 12:28 14,3 C 59 % 1013,9 hPa 0,0 l/m 12,2 km/h (2 Bft) W 273 0 min 0,000 mm 2,4 UV-I 385 W/m 6,4 C 11,4 C 24,1 km/h (4 Bft) 94,64 %
15.04.2017 12:30 14,4 C 57 % 1013,8 hPa 0,0 l/m 11,7 km/h (2 Bft) W-NW 296 2 min 0,000 mm 2,8 UV-I 511 W/m 6,0 C 11,7 C 20,9 km/h (4 Bft) 95,12 %
15.04.2017 12:32 14,6 C 57 % 1013,9 hPa 0,0 l/m 17,1 km/h (3 Bft) W-SW 255 2 min 0,000 mm 2,7 UV-I 505 W/m 6,2 C 10,0 C 25,7 km/h (4 Bft) 91,53 %
15.04.2017 12:34 14,6 C 56 % 1013,7 hPa 0,0 l/m 16,0 km/h (3 Bft) W-NW 293 0 min 0,000 mm 2,3 UV-I 426 W/m 5,9 C 10,4 C 29,0 km/h (5 Bft) 92,11 %
15.04.2017 12:36 14,6 C 58 % 1013,7 hPa 0,0 l/m 11,8 km/h (2 Bft) W 277 0 min 0,000 mm 2,3 UV-I 428 W/m 6,4 C 11,9 C 17,7 km/h (3 Bft) 94,87 %
15.04.2017 12:38 14,7 C 57 % 1013,7 hPa 0,0 l/m 10,3 km/h (2 Bft) W 280 2 min 0,000 mm 2,4 UV-I 459 W/m 6,3 C 12,6 C 16,1 km/h (3 Bft) 96,61 %
15.04.2017 12:40 14,8 C 57 % 1013,7 hPa 0,0 l/m 3,8 km/h (1 Bft) NW 313 2 min 0,000 mm 2,4 UV-I 457 W/m 6,4 C 14,8 C 8,0 km/h (2 Bft) 90,91 %
15.04.2017 12:42 14,8 C 59 % 1013,7 hPa 0,0 l/m 7,3 km/h (2 Bft) W-SW 250 0 min 0,000 mm 2,3 UV-I 429 W/m 6,9 C 14,3 C 14,5 km/h (3 Bft) 92,45 %
15.04.2017 12:44 14,9 C 57 % 1013,7 hPa 0,0 l/m 14,8 km/h (3 Bft) W-SW 254 0 min 0,000 mm 2,2 UV-I 417 W/m 6,5 C 11,1 C 29,0 km/h (5 Bft) 97,37 %
15.04.2017 12:46 14,8 C 56 % 1013,7 hPa 0,0 l/m 12,1 km/h (2 Bft) W-SW 250 0 min 0,000 mm 2,3 UV-I 420 W/m 6,1 C 12,0 C 22,5 km/h (4 Bft) 98,00 %
15.04.2017 12:48 14,8 C 56 % 1013,6 hPa 0,0 l/m 11,3 km/h (2 Bft) W-SW 257 2 min 0,000 mm 2,4 UV-I 444 W/m 6,1 C 12,3 C 17,7 km/h (3 Bft) 95,45 %
15.04.2017 12:50 14,8 C 58 % 1013,6 hPa 0,0 l/m 13,3 km/h (3 Bft) W-SW 255 2 min 0,000 mm 2,4 UV-I 461 W/m 6,6 C 11,5 C 30,6 km/h (5 Bft) 96,23 %
15.04.2017 12:52 14,8 C 56 % 1013,6 hPa 0,0 l/m 14,1 km/h (3 Bft) W 270 2 min 0,000 mm 2,3 UV-I 443 W/m 6,1 C 11,3 C 29,0 km/h (5 Bft) 97,56 %
15.04.2017 12:54 14,8 C 56 % 1013,7 hPa 0,0 l/m 14,7 km/h (3 Bft) W-SW 243 0 min 0,000 mm 2,0 UV-I 400 W/m 6,1 C 11,1 C 29,0 km/h (5 Bft) 100,00 %
15.04.2017 12:56 14,8 C 57 % 1013,6 hPa 0,0 l/m 13,7 km/h (3 Bft) S-SW 210 0 min 0,000 mm 2,0 UV-I 420 W/m 6,4 C 11,4 C 20,9 km/h (4 Bft) 96,61 %
15.04.2017 12:58 14,7 C 56 % 1013,5 hPa 0,0 l/m 16,7 km/h (3 Bft) SW 235 0 min 0,000 mm 1,7 UV-I 355 W/m 6,0 C 10,3 C 33,8 km/h (5 Bft) 100,00 %
15.04.2017 13:00 14,7 C 56 % 1013,6 hPa 0,0 l/m 13,5 km/h (3 Bft) W-SW 248 0 min 0,254 mm 1,4 UV-I 279 W/m 6,0 C 11,4 C 17,7 km/h (3 Bft) 97,37 %
15.04.2017 13:02 14,7 C 58 % 1013,5 hPa 0,0 l/m 8,3 km/h (2 Bft) W-NW 284 0 min 0,000 mm 1,4 UV-I 279 W/m 6,5 C 13,6 C 19,3 km/h (3 Bft) 98,11 %
15.04.2017 13:04 14,7 C 58 % 1013,5 hPa 0,0 l/m 8,6 km/h (2 Bft) W 277 0 min 0,000 mm 1,6 UV-I 309 W/m 6,5 C 13,5 C 19,3 km/h (3 Bft) 94,74 %
15.04.2017 13:06 14,7 C 56 % 1013,5 hPa 0,0 l/m 13,0 km/h (3 Bft) W-SW 250 0 min 0,000 mm 1,8 UV-I 314 W/m 6,0 C 11,5 C 19,3 km/h (3 Bft) 100,00 %
15.04.2017 13:08 14,8 C 57 % 1013,4 hPa 0,0 l/m 13,2 km/h (3 Bft) W-NW 288 0 min 0,000 mm 1,8 UV-I 330 W/m 6,4 C 11,6 C 22,5 km/h (4 Bft) 98,21 %
15.04.2017 13:10 14,8 C 56 % 1013,4 hPa 0,0 l/m 18,1 km/h (3 Bft) W-SW 244 0 min 0,000 mm 2,1 UV-I 380 W/m 6,1 C 10,0 C 29,0 km/h (5 Bft) 98,00 %
15.04.2017 13:12 14,8 C 56 % 1013,5 hPa 0,0 l/m 11,4 km/h (2 Bft) W-SW 254 2 min 0,000 mm 2,4 UV-I 441 W/m 6,1 C 12,3 C 20,9 km/h (4 Bft) 97,56 %
15.04.2017 13:14 14,8 C 57 % 1013,5 hPa 0,0 l/m 8,7 km/h (2 Bft) W 263 0 min 0,000 mm 2,3 UV-I 404 W/m 6,4 C 13,5 C 14,5 km/h (3 Bft) 98,00 %
15.04.2017 13:16 14,9 C 58 % 1013,4 hPa 0,0 l/m 10,2 km/h (2 Bft) W 269 0 min 0,000 mm 1,9 UV-I 328 W/m 6,7 C 12,9 C 20,9 km/h (4 Bft) 100,00 %
15.04.2017 13:18 14,9 C 56 % 1013,4 hPa 0,0 l/m 17,4 km/h (3 Bft) SW 229 0 min 0,000 mm 1,6 UV-I 279 W/m 6,2 C 10,3 C 29,0 km/h (5 Bft) 97,26 %
15.04.2017 13:20 14,8 C 57 % 1013,5 hPa 0,0 l/m 11,1 km/h (2 Bft) W 275 0 min 0,000 mm 1,5 UV-I 262 W/m 6,4 C 12,4 C 19,3 km/h (3 Bft) 100,00 %
15.04.2017 13:22 14,7 C 57 % 1013,4 hPa 0,0 l/m 17,4 km/h (3 Bft) W 269 0 min 0,000 mm 1,7 UV-I 289 W/m 6,3 C 10,1 C 29,0 km/h (5 Bft) 95,12 %
15.04.2017 13:24 14,7 C 58 % 1013,4 hPa 0,0 l/m 12,4 km/h (3 Bft) W 272 0 min 0,000 mm 1,9 UV-I 322 W/m 6,5 C 11,8 C 20,9 km/h (4 Bft) 96,00 %
15.04.2017 13:26 14,7 C 57 % 1013,4 hPa 0,0 l/m 10,9 km/h (2 Bft) W 280 0 min 0,000 mm 2,2 UV-I 424 W/m 6,3 C 12,4 C 19,3 km/h (3 Bft) 94,34 %
15.04.2017 13:28 14,8 C 57 % 1013,4 hPa 0,0 l/m 14,9 km/h (3 Bft) W 260 2 min 0,000 mm 2,5 UV-I 522 W/m 6,4 C 11,0 C 22,5 km/h (4 Bft) 100,00 %
15.04.2017 13:30 14,8 C 56 % 1013,3 hPa 0,0 l/m 16,4 km/h (3 Bft) W 280 0 min 0,000 mm 2,1 UV-I 414 W/m 6,1 C 10,5 C 30,6 km/h (5 Bft) 100,00 %
15.04.2017 13:32 14,8 C 55 % 1013,3 hPa 0,0 l/m 14,2 km/h (3 Bft) W-SW 254 0 min 0,000 mm 1,8 UV-I 324 W/m 5,8 C 11,2 C 29,0 km/h (5 Bft) 94,64 %
15.04.2017 13:34 14,7 C 55 % 1013,2 hPa 0,0 l/m 16,9 km/h (3 Bft) NW 308 0 min 0,000 mm 1,3 UV-I 250 W/m 5,8 C 10,2 C 25,7 km/h (4 Bft) 97,73 %
15.04.2017 13:36 14,7 C 56 % 1013,2 hPa 0,0 l/m 14,5 km/h (3 Bft) W-NW 287 0 min 0,000 mm 1,1 UV-I 203 W/m 6,0 C 11,0 C 20,9 km/h (4 Bft) 95,45 %
15.04.2017 13:38 14,6 C 56 % 1013,2 hPa 0,0 l/m 14,3 km/h (3 Bft) W 262 0 min 0,000 mm 1,1 UV-I 197 W/m 5,9 C 10,9 C 24,1 km/h (4 Bft) 94,34 %
15.04.2017 13:40 14,4 C 57 % 1013,2 hPa 0,0 l/m 16,4 km/h (3 Bft) W-SW 255 0 min 0,000 mm 1,3 UV-I 222 W/m 6,0 C 10,0 C 25,7 km/h (4 Bft) 97,73 %
15.04.2017 13:42 14,4 C 58 % 1013,3 hPa 0,0 l/m 12,3 km/h (3 Bft) W-SW 257 0 min 0,000 mm 1,2 UV-I 202 W/m 6,2 C 11,5 C 22,5 km/h (4 Bft) 97,56 %
15.04.2017 13:44 14,3 C 57 % 1013,2 hPa 0,0 l/m 13,2 km/h (3 Bft) W-NW 288 0 min 0,000 mm 1,1 UV-I 203 W/m 5,9 C 11,0 C 19,3 km/h (3 Bft) 100,00 %
15.04.2017 13:46 14,4 C 58 % 1013,2 hPa 0,0 l/m 8,0 km/h (2 Bft) W-SW 245 0 min 0,000 mm 1,4 UV-I 251 W/m 6,2 C 13,5 C 12,9 km/h (3 Bft) 96,00 %
15.04.2017 13:48 14,4 C 59 % 1013,2 hPa 0,0 l/m 16,3 km/h (3 Bft) W-SW 251 0 min 0,000 mm 1,9 UV-I 363 W/m 6,5 C 10,0 C 22,5 km/h (4 Bft) 97,56 %
15.04.2017 13:50 14,6 C 58 % 1013,2 hPa 0,0 l/m 13,2 km/h (3 Bft) W 271 2 min 0,000 mm 2,1 UV-I 432 W/m 6,4 C 11,3 C 20,9 km/h (4 Bft) 97,62 %
15.04.2017 13:52 14,7 C 58 % 1013,2 hPa 0,0 l/m 15,1 km/h (3 Bft) W 272 0 min 0,000 mm 1,9 UV-I 365 W/m 6,5 C 10,8 C 22,5 km/h (4 Bft) 96,15 %
15.04.2017 13:54 14,7 C 57 % 1013,2 hPa 0,0 l/m 14,8 km/h (3 Bft) W-NW 293 0 min 0,000 mm 1,5 UV-I 279 W/m 6,3 C 10,9 C 20,9 km/h (4 Bft) 98,31 %
15.04.2017 13:56 14,7 C 56 % 1013,2 hPa 0,0 l/m 13,7 km/h (3 Bft) W-NW 284 0 min 0,000 mm 1,1 UV-I 215 W/m 6,0 C 11,3 C 20,9 km/h (4 Bft) 94,92 %
15.04.2017 13:58 14,7 C 56 % 1013,2 hPa 0,0 l/m 18,4 km/h (3 Bft) W-SW 257 0 min 0,000 mm 0,9 UV-I 169 W/m 6,0 C 9,8 C 22,5 km/h (4 Bft) 94,00 %
15.04.2017 14:00 14,6 C 58 % 1013,2 hPa 0,0 l/m 14,2 km/h (3 Bft) W 262 0 min 0,228 mm 0,8 UV-I 151 W/m 6,4 C 11,0 C 24,1 km/h (4 Bft) 95,74 %
15.04.2017 14:02 14,5 C 58 % 1013,2 hPa 0,0 l/m 14,4 km/h (3 Bft) SW 224 0 min 0,000 mm 0,9 UV-I 179 W/m 6,3 C 10,8 C 19,3 km/h (3 Bft) 90,91 %
15.04.2017 14:04 14,4 C 58 % 1013,2 hPa 0,0 l/m 13,6 km/h (3 Bft) SW 232 0 min 0,000 mm 1,2 UV-I 217 W/m 6,2 C 11,0 C 20,9 km/h (4 Bft) 100,00 %
15.04.2017 14:06 14,4 C 58 % 1013,1 hPa 0,0 l/m 9,1 km/h (2 Bft) W 260 0 min 0,000 mm 1,4 UV-I 273 W/m 6,2 C 12,9 C 19,3 km/h (3 Bft) 95,77 %
15.04.2017 14:08 14,6 C 59 % 1013,1 hPa 0,0 l/m 8,0 km/h (2 Bft) S-SW 205 0 min 0,000 mm 1,8 UV-I 324 W/m 6,7 C 13,7 C 12,9 km/h (3 Bft) 92,68 %
15.04.2017 14:10 14,7 C 58 % 1013,1 hPa 0,0 l/m 11,3 km/h (2 Bft) W-SW 250 0 min 0,000 mm 2,0 UV-I 383 W/m 6,5 C 12,2 C 16,1 km/h (3 Bft) 94,00 %
15.04.2017 14:12 14,8 C 57 % 1013,1 hPa 0,0 l/m 16,7 km/h (3 Bft) SW 232 0 min 0,000 mm 2,0 UV-I 368 W/m 6,4 C 10,4 C 25,7 km/h (4 Bft) 98,00 %
15.04.2017 14:14 14,8 C 57 % 1013,1 hPa 0,0 l/m 12,8 km/h (3 Bft) W 270 0 min 0,000 mm 1,9 UV-I 350 W/m 6,4 C 11,7 C 19,3 km/h (3 Bft) 97,37 %
15.04.2017 14:16 14,9 C 56 % 1013,0 hPa 0,0 l/m 13,5 km/h (3 Bft) SW 232 0 min 0,000 mm 1,7 UV-I 341 W/m 6,2 C 11,6 C 24,1 km/h (4 Bft) 92,86 %
15.04.2017 14:18 14,9 C 57 % 1013,1 hPa 0,0 l/m 6,6 km/h (2 Bft) W-SW 247 0 min 0,000 mm 1,5 UV-I 289 W/m 6,5 C 14,8 C 11,3 km/h (2 Bft) 89,47 %
15.04.2017 14:20 15,0 C 56 % 1013,0 hPa 0,0 l/m 16,6 km/h (3 Bft) SW 226 0 min 0,000 mm 1,3 UV-I 259 W/m 6,3 C 10,7 C 25,7 km/h (4 Bft) 96,23 %
15.04.2017 14:22 14,9 C 55 % 1013,0 hPa 0,0 l/m 14,7 km/h (3 Bft) SW 225 0 min 0,000 mm 1,3 UV-I 246 W/m 5,9 C 11,2 C 24,1 km/h (4 Bft) 97,87 %
15.04.2017 14:24 14,9 C 55 % 1013,0 hPa 0,0 l/m 16,6 km/h (3 Bft) SW 234 0 min 0,000 mm 1,2 UV-I 247 W/m 5,9 C 10,6 C 27,4 km/h (4 Bft) 97,37 %
15.04.2017 14:26 14,8 C 54 % 1013,0 hPa 0,0 l/m 17,7 km/h (3 Bft) W-SW 257 0 min 0,000 mm 1,6 UV-I 279 W/m 5,6 C 10,1 C 25,7 km/h (4 Bft) 94,00 %
15.04.2017 14:28 14,9 C 55 % 1012,9 hPa 0,0 l/m 17,8 km/h (3 Bft) W-SW 248 0 min 0,000 mm 1,8 UV-I 378 W/m 5,9 C 10,2 C 30,6 km/h (5 Bft) 97,44 %
15.04.2017 14:30 15,0 C 54 % 1012,9 hPa 0,0 l/m 14,8 km/h (3 Bft) W 281 0 min 0,000 mm 1,5 UV-I 310 W/m 5,8 C 11,3 C 24,1 km/h (4 Bft) 98,00 %
15.04.2017 14:32 15,0 C 54 % 1012,9 hPa 0,0 l/m 14,7 km/h (3 Bft) W-SW 254 0 min 0,000 mm 1,4 UV-I 269 W/m 5,8 C 11,3 C 22,5 km/h (4 Bft) 100,00 %
15.04.2017 14:34 14,9 C 56 % 1012,9 hPa 0,0 l/m 12,9 km/h (3 Bft) W-SW 258 0 min 0,000 mm 1,2 UV-I 239 W/m 6,2 C 11,8 C 22,5 km/h (4 Bft) 98,00 %
15.04.2017 14:36 14,9 C 55 % 1012,8 hPa 0,0 l/m 13,9 km/h (3 Bft) W-SW 251 0 min 0,000 mm 1,0 UV-I 207 W/m 5,9 C 11,4 C 25,7 km/h (4 Bft) 97,78 %
15.04.2017 14:38 14,9 C 56 % 1012,9 hPa 0,0 l/m 10,7 km/h (2 Bft) NW 321 0 min 0,000 mm 1,1 UV-I 218 W/m 6,2 C 12,7 C 16,1 km/h (3 Bft) 100,00 %
15.04.2017 14:40 14,9 C 56 % 1012,8 hPa 0,0 l/m 16,1 km/h (3 Bft) W-SW 248 0 min 0,000 mm 1,4 UV-I 285 W/m 6,2 C 10,7 C 22,5 km/h (4 Bft) 94,34 %
15.04.2017 14:42 15,0 C 55 % 1012,8 hPa 0,0 l/m 17,1 km/h (3 Bft) W 268 0 min 0,000 mm 1,9 UV-I 388 W/m 6,0 C 10,5 C 25,7 km/h (4 Bft) 98,00 %
15.04.2017 14:44 15,2 C 55 % 1012,8 hPa 0,0 l/m 14,5 km/h (3 Bft) W-SW 251 2 min 0,000 mm 2,4 UV-I 471 W/m 6,2 C 11,6 C 19,3 km/h (3 Bft) 100,00 %
15.04.2017 14:46 15,3 C 55 % 1012,7 hPa 0,0 l/m 14,4 km/h (3 Bft) W-SW 256 2 min 0,000 mm 2,2 UV-I 411 W/m 6,3 C 11,8 C 24,1 km/h (4 Bft) 98,00 %
15.04.2017 14:48 15,4 C 54 % 1012,7 hPa 0,0 l/m 14,8 km/h (3 Bft) NW 316 0 min 0,000 mm 2,1 UV-I 351 W/m 6,1 C 11,7 C 20,9 km/h (4 Bft) 92,68 %
15.04.2017 14:50 15,5 C 53 % 1012,7 hPa 0,0 l/m 14,0 km/h (3 Bft) W 272 2 min 0,000 mm 2,2 UV-I 397 W/m 6,0 C 12,1 C 22,5 km/h (4 Bft) 100,00 %
15.04.2017 14:52 15,6 C 53 % 1012,7 hPa 0,0 l/m 16,4 km/h (3 Bft) W 259 2 min 0,000 mm 2,3 UV-I 447 W/m 6,1 C 11,5 C 29,0 km/h (5 Bft) 97,37 %
15.04.2017 14:54 15,6 C 53 % 1012,7 hPa 0,0 l/m 15,7 km/h (3 Bft) W-SW 254 2 min 0,000 mm 2,2 UV-I 432 W/m 6,1 C 11,7 C 22,5 km/h (4 Bft) 98,00 %
15.04.2017 14:56 15,7 C 53 % 1012,7 hPa 0,0 l/m 12,7 km/h (3 Bft) W-SW 246 2 min 0,000 mm 2,3 UV-I 460 W/m 6,1 C 12,8 C 22,5 km/h (4 Bft) 98,11 %
15.04.2017 14:58 15,8 C 54 % 1012,6 hPa 0,0 l/m 11,9 km/h (2 Bft) W-SW 248 2 min 0,000 mm 2,8 UV-I 602 W/m 6,5 C 13,2 C 19,3 km/h (3 Bft) 94,29 %
15.04.2017 15:00 16,1 C 54 % 1012,6 hPa 0,0 l/m 9,8 km/h (2 Bft) W-SW 252 2 min 0,254 mm 2,3 UV-I 629 W/m 6,8 C 14,4 C 16,1 km/h (3 Bft) 97,87 %
15.04.2017 15:02 16,2 C 52 % 1012,6 hPa 0,0 l/m 12,6 km/h (3 Bft) W 271 0 min 0,000 mm 1,5 UV-I 322 W/m 6,3 C 13,4 C 19,3 km/h (3 Bft) 97,87 %
15.04.2017 15:04 16,1 C 54 % 1012,6 hPa 0,0 l/m 10,0 km/h (2 Bft) W 260 0 min 0,000 mm 1,2 UV-I 236 W/m 6,8 C 14,3 C 19,3 km/h (3 Bft) 96,61 %
15.04.2017 15:06 15,9 C 52 % 1012,5 hPa 0,0 l/m 17,9 km/h (3 Bft) W 259 0 min 0,000 mm 1,0 UV-I 193 W/m 6,1 C 11,4 C 29,0 km/h (5 Bft) 97,87 %
15.04.2017 15:08 15,7 C 53 % 1012,5 hPa 0,0 l/m 15,6 km/h (3 Bft) W 270 0 min 0,000 mm 0,9 UV-I 181 W/m 6,1 C 11,9 C 24,1 km/h (4 Bft) 100,00 %
15.04.2017 15:10 15,5 C 54 % 1012,5 hPa 0,0 l/m 12,6 km/h (3 Bft) NW 319 0 min 0,000 mm 0,9 UV-I 208 W/m 6,2 C 12,6 C 20,9 km/h (4 Bft) 98,11 %
15.04.2017 15:12 15,4 C 54 % 1012,4 hPa 0,0 l/m 14,4 km/h (3 Bft) W-SW 252 0 min 0,000 mm 1,2 UV-I 272 W/m 6,1 C 11,9 C 25,7 km/h (4 Bft) 100,00 %
15.04.2017 15:14 15,4 C 54 % 1012,4 hPa 0,0 l/m 15,4 km/h (3 Bft) W-SW 248 0 min 0,000 mm 1,7 UV-I 362 W/m 6,1 C 11,5 C 22,5 km/h (4 Bft) 98,11 %
15.04.2017 15:16 15,6 C 54 % 1012,4 hPa 0,0 l/m 14,4 km/h (3 Bft) W 259 0 min 0,000 mm 1,6 UV-I 372 W/m 6,3 C 12,1 C 27,4 km/h (4 Bft) 100,00 %
15.04.2017 15:18 15,8 C 54 % 1012,4 hPa 0,0 l/m 17,5 km/h (3 Bft) S-SW 207 2 min 0,000 mm 2,2 UV-I 380 W/m 6,5 C 11,4 C 25,7 km/h (4 Bft) 100,00 %
15.04.2017 15:20 16,0 C 53 % 1012,4 hPa 0,0 l/m 12,2 km/h (2 Bft) S 186 0 min 0,000 mm 1,6 UV-I 350 W/m 6,4 C 13,3 C 20,9 km/h (4 Bft) 100,00 %
15.04.2017 15:22 15,9 C 52 % 1012,4 hPa 0,0 l/m 18,2 km/h (3 Bft) W 273 0 min 0,000 mm 1,3 UV-I 268 W/m 6,1 C 11,4 C 24,1 km/h (4 Bft) 97,56 %
15.04.2017 15:24 15,8 C 52 % 1012,4 hPa 0,0 l/m 11,3 km/h (2 Bft) W 263 0 min 0,000 mm 1,2 UV-I 245 W/m 6,0 C 13,5 C 24,1 km/h (4 Bft) 98,00 %
15.04.2017 15:26 15,8 C 54 % 1012,3 hPa 0,0 l/m 8,3 km/h (2 Bft) S-SW 210 0 min 0,000 mm 1,3 UV-I 280 W/m 6,5 C 14,8 C 14,5 km/h (3 Bft) 98,00 %
15.04.2017 15:28 15,7 C 55 % 1012,4 hPa 0,0 l/m 5,7 km/h (1 Bft) W-SW 243 0 min 0,000 mm 1,3 UV-I 247 W/m 6,7 C 15,7 C 11,3 km/h (2 Bft) 95,74 %
15.04.2017 15:30 15,7 C 55 % 1012,4 hPa 0,0 l/m 8,5 km/h (2 Bft) W-SW 250 0 min 0,000 mm 1,3 UV-I 234 W/m 6,7 C 14,6 C 14,5 km/h (3 Bft) 97,56 %
15.04.2017 15:32 15,7 C 55 % 1012,4 hPa 0,0 l/m 9,9 km/h (2 Bft) W 261 0 min 0,000 mm 1,3 UV-I 256 W/m 6,7 C 13,9 C 12,9 km/h (3 Bft) 97,73 %
15.04.2017 15:34 15,7 C 55 % 1012,4 hPa 0,0 l/m 8,6 km/h (2 Bft) W-SW 252 0 min 0,000 mm 1,3 UV-I 262 W/m 6,7 C 14,5 C 14,5 km/h (3 Bft) 100,00 %
15.04.2017 15:36 15,7 C 53 % 1012,4 hPa 0,0 l/m 11,8 km/h (2 Bft) SW 225 0 min 0,000 mm 1,4 UV-I 294 W/m 6,1 C 13,2 C 17,7 km/h (3 Bft) 98,39 %
15.04.2017 15:38 15,7 C 53 % 1012,3 hPa 0,0 l/m 14,4 km/h (3 Bft) W-SW 256 0 min 0,000 mm 1,4 UV-I 291 W/m 6,1 C 12,2 C 20,9 km/h (4 Bft) 100,00 %
15.04.2017 15:40 15,6 C 53 % 1012,4 hPa 0,0 l/m 14,4 km/h (3 Bft) W-SW 246 0 min 0,000 mm 1,5 UV-I 311 W/m 6,1 C 12,1 C 19,3 km/h (3 Bft) 96,23 %
15.04.2017 15:42 15,6 C 53 % 1012,4 hPa 0,0 l/m 14,8 km/h (3 Bft) W-SW 256 0 min 0,000 mm 1,5 UV-I 314 W/m 6,1 C 12,0 C 20,9 km/h (4 Bft) 97,73 %
15.04.2017 15:44 15,6 C 53 % 1012,4 hPa 0,0 l/m 14,2 km/h (3 Bft) SW 231 0 min 0,000 mm 1,5 UV-I 292 W/m 6,1 C 12,2 C 20,9 km/h (4 Bft) 92,68 %
15.04.2017 15:46 15,4 C 52 % 1012,3 hPa 0,0 l/m 16,9 km/h (3 Bft) W-SW 257 0 min 0,000 mm 1,4 UV-I 262 W/m 5,6 C 11,1 C 29,0 km/h (5 Bft) 98,21 %
15.04.2017 15:48 15,4 C 52 % 1012,3 hPa 0,0 l/m 17,8 km/h (3 Bft) W-SW 239 0 min 0,000 mm 1,4 UV-I 307 W/m 5,6 C 10,8 C 29,0 km/h (5 Bft) 95,45 %
15.04.2017 15:50 15,4 C 52 % 1012,3 hPa 0,0 l/m 15,6 km/h (3 Bft) W 261 0 min 0,000 mm 1,6 UV-I 338 W/m 5,6 C 11,5 C 24,1 km/h (4 Bft) 90,48 %
15.04.2017 15:52 15,4 C 53 % 1012,3 hPa 0,0 l/m 15,0 km/h (3 Bft) NW 304 0 min 0,000 mm 1,5 UV-I 326 W/m 5,9 C 11,7 C 22,5 km/h (4 Bft) 96,00 %
15.04.2017 15:54 15,5 C 54 % 1012,3 hPa 0,0 l/m 10,6 km/h (2 Bft) SW 225 0 min 0,000 mm 1,4 UV-I 328 W/m 6,2 C 13,4 C 17,7 km/h (3 Bft) 100,00 %
15.04.2017 15:56 15,5 C 55 % 1012,3 hPa 0,0 l/m 12,9 km/h (3 Bft) W 267 0 min 0,000 mm 1,3 UV-I 276 W/m 6,5 C 12,5 C 22,5 km/h (4 Bft) 94,81 %
15.04.2017 15:58 15,5 C 54 % 1012,3 hPa 0,0 l/m 13,8 km/h (3 Bft) SW 232 0 min 0,000 mm 1,0 UV-I 212 W/m 6,2 C 12,2 C 20,9 km/h (4 Bft) 94,00 %
15.04.2017 16:00 15,4 C 55 % 1012,3 hPa 0,0 l/m 12,3 km/h (3 Bft) W 273 0 min 0,229 mm 0,7 UV-I 172 W/m 6,4 C 12,6 C 16,1 km/h (3 Bft) 90,00 %
15.04.2017 16:02 15,3 C 55 % 1012,3 hPa 0,0 l/m 10,8 km/h (2 Bft) W-SW 243 0 min 0,000 mm 0,7 UV-I 154 W/m 6,3 C 13,1 C 14,5 km/h (3 Bft) 92,11 %
15.04.2017 16:04 15,2 C 58 % 1012,3 hPa 0,0 l/m 12,5 km/h (3 Bft) S-SW 210 0 min 0,000 mm 0,6 UV-I 126 W/m 7,0 C 12,3 C 19,3 km/h (3 Bft) 90,57 %
15.04.2017 16:06 15,0 C 60 % 1012,3 hPa 0,0 l/m 11,8 km/h (2 Bft) S-SW 205 0 min 0,000 mm 0,2 UV-I 92 W/m 7,3 C 12,4 C 19,3 km/h (3 Bft) 92,68 %
15.04.2017 16:08 14,8 C 60 % 1012,4 hPa 0,0 l/m 14,5 km/h (3 Bft) SW 236 0 min 0,000 mm 0,0 UV-I 71 W/m 7,1 C 11,1 C 20,9 km/h (4 Bft) 96,23 %
15.04.2017 16:10 14,4 C 63 % 1012,4 hPa 0,0 l/m 14,9 km/h (3 Bft) W 260 0 min 0,000 mm 0,0 UV-I 60 W/m 7,4 C 10,5 C 30,6 km/h (5 Bft) 92,00 %
15.04.2017 16:12 14,1 C 70 % 1012,6 hPa 0,2 l/m 12,9 km/h (3 Bft) W-SW 254 0 min 0,000 mm 0,0 UV-I 74 W/m 8,7 C 10,9 C 19,3 km/h (3 Bft) 92,31 %
15.04.2017 16:14 13,6 C 70 % 1012,4 hPa 0,2 l/m 15,0 km/h (3 Bft) W 273 0 min 0,000 mm 0,4 UV-I 137 W/m 8,2 C 9,5 C 22,5 km/h (4 Bft) 97,06 %
15.04.2017 16:16 13,2 C 68 % 1012,3 hPa 0,0 l/m 14,8 km/h (3 Bft) W 262 0 min 0,000 mm 0,8 UV-I 226 W/m 7,4 C 9,1 C 20,9 km/h (4 Bft) 95,45 %
15.04.2017 16:18 13,1 C 72 % 1012,3 hPa 0,0 l/m 10,6 km/h (2 Bft) W 273 0 min 0,000 mm 0,9 UV-I 248 W/m 8,2 C 10,7 C 14,5 km/h (3 Bft) 90,91 %
15.04.2017 16:20 12,9 C 72 % 1012,3 hPa 0,0 l/m 10,1 km/h (2 Bft) W 279 0 min 0,000 mm 0,9 UV-I 231 W/m 8,0 C 10,7 C 16,1 km/h (3 Bft) 92,00 %
15.04.2017 16:22 12,8 C 73 % 1012,3 hPa 0,0 l/m 8,4 km/h (2 Bft) W 273 0 min 0,000 mm 0,9 UV-I 224 W/m 8,1 C 11,6 C 14,5 km/h (3 Bft) 86,00 %
15.04.2017 16:24 12,9 C 73 % 1012,3 hPa 0,0 l/m 8,7 km/h (2 Bft) W-SW 250 0 min 0,000 mm 0,9 UV-I 206 W/m 8,2 C 11,5 C 11,3 km/h (2 Bft) 91,49 %
15.04.2017 16:26 13,0 C 73 % 1012,3 hPa 0,0 l/m 5,9 km/h (2 Bft) W-SW 247 0 min 0,000 mm 0,8 UV-I 202 W/m 8,3 C 13,0 C 11,3 km/h (2 Bft) 95,12 %
15.04.2017 16:28 13,1 C 74 % 1012,2 hPa 0,0 l/m 7,4 km/h (2 Bft) W-SW 243 0 min 0,000 mm 0,8 UV-I 204 W/m 8,6 C 12,5 C 11,3 km/h (2 Bft) 95,74 %
15.04.2017 16:30 13,2 C 73 % 1012,3 hPa 0,0 l/m 7,0 km/h (2 Bft) SW 232 0 min 0,000 mm 0,7 UV-I 189 W/m 8,5 C 12,8 C 11,3 km/h (2 Bft) 96,00 %
15.04.2017 16:32 13,3 C 75 % 1012,2 hPa 0,0 l/m 6,5 km/h (2 Bft) SW 230 0 min 0,000 mm 0,7 UV-I 173 W/m 9,0 C 13,3 C 9,7 km/h (2 Bft) 95,24 %
15.04.2017 16:34 13,3 C 73 % 1012,2 hPa 0,0 l/m 6,0 km/h (2 Bft) W-SW 245 0 min 0,000 mm 0,7 UV-I 163 W/m 8,6 C 13,3 C 9,7 km/h (2 Bft) 91,49 %
15.04.2017 16:36 13,4 C 72 % 1012,1 hPa 0,0 l/m 6,8 km/h (2 Bft) W-SW 250 0 min 0,000 mm 0,7 UV-I 161 W/m 8,5 C 13,2 C 11,3 km/h (2 Bft) 92,00 %
15.04.2017 16:38 13,4 C 71 % 1012,1 hPa 0,0 l/m 7,1 km/h (2 Bft) SW 236 0 min 0,000 mm 0,7 UV-I 167 W/m 8,3 C 13,0 C 9,7 km/h (2 Bft) 90,24 %
15.04.2017 16:40 13,5 C 72 % 1012,1 hPa 0,0 l/m 7,5 km/h (2 Bft) SW 219 0 min 0,000 mm 0,7 UV-I 171 W/m 8,6 C 12,8 C 12,9 km/h (3 Bft) 94,00 %
15.04.2017 16:42 13,6 C 71 % 1012,1 hPa 0,0 l/m 7,0 km/h (2 Bft) W-SW 244 0 min 0,000 mm 0,7 UV-I 161 W/m 8,4 C 13,2 C 11,3 km/h (2 Bft) 97,56 %
15.04.2017 16:44 13,6 C 70 % 1012,1 hPa 0,0 l/m 9,9 km/h (2 Bft) SW 229 0 min 0,000 mm 0,7 UV-I 154 W/m 8,2 C 11,6 C 16,1 km/h (3 Bft) 96,43 %
15.04.2017 16:46 13,7 C 70 % 1012,1 hPa 0,0 l/m 8,8 km/h (2 Bft) S-SW 200 0 min 0,000 mm 0,6 UV-I 162 W/m 8,3 C 12,3 C 14,5 km/h (3 Bft) 96,00 %
15.04.2017 16:48 13,7 C 70 % 1012,0 hPa 0,0 l/m 7,7 km/h (2 Bft) S-SO 160 0 min 0,000 mm 0,7 UV-I 190 W/m 8,3 C 12,9 C 12,9 km/h (3 Bft) 100,00 %
15.04.2017 16:50 13,8 C 70 % 1012,0 hPa 0,0 l/m 10,1 km/h (2 Bft) SW 232 0 min 0,000 mm 0,8 UV-I 241 W/m 8,4 C 11,7 C 19,3 km/h (3 Bft) 96,15 %
15.04.2017 16:52 13,9 C 68 % 1012,1 hPa 0,0 l/m 10,5 km/h (2 Bft) SW 227 0 min 0,000 mm 0,8 UV-I 226 W/m 8,1 C 11,7 C 17,7 km/h (3 Bft) 95,38 %
15.04.2017 16:54 14,0 C 68 % 1012,1 hPa 0,0 l/m 8,1 km/h (2 Bft) SW 222 0 min 0,000 mm 0,8 UV-I 207 W/m 8,2 C 13,0 C 16,1 km/h (3 Bft) 97,56 %
15.04.2017 16:56 14,1 C 69 % 1012,1 hPa 0,0 l/m 9,4 km/h (2 Bft) W-SW 240 0 min 0,000 mm 0,7 UV-I 192 W/m 8,5 C 12,4 C 12,9 km/h (3 Bft) 98,21 %
15.04.2017 16:58 14,1 C 69 % 1012,1 hPa 0,0 l/m 9,5 km/h (2 Bft) SW 236 0 min 0,000 mm 0,7 UV-I 176 W/m 8,5 C 12,4 C 17,7 km/h (3 Bft) 98,00 %
15.04.2017 17:00 14,0 C 69 % 1012,1 hPa 0,0 l/m 12,6 km/h (3 Bft) SW 229 0 min 0,000 mm 0,6 UV-I 165 W/m 8,4 C 10,9 C 19,3 km/h (3 Bft) 95,45 %
15.04.2017 17:02 13,9 C 69 % 1012,1 hPa 0,0 l/m 13,9 km/h (3 Bft) W-SW 239 0 min 0,127 mm 0,6 UV-I 167 W/m 8,3 C 10,3 C 22,5 km/h (4 Bft) 98,11 %
15.04.2017 17:04 13,8 C 68 % 1012,1 hPa 0,0 l/m 14,8 km/h (3 Bft) S-SW 195 0 min 0,000 mm 0,6 UV-I 173 W/m 8,0 C 9,8 C 22,5 km/h (4 Bft) 97,37 %
15.04.2017 17:06 13,8 C 70 % 1012,1 hPa 0,0 l/m 10,7 km/h (2 Bft) S-SW 198 0 min 0,000 mm 0,5 UV-I 177 W/m 8,4 C 11,5 C 14,5 km/h (3 Bft) 95,24 %
15.04.2017 17:08 13,8 C 70 % 1012,0 hPa 0,0 l/m 13,8 km/h (3 Bft) S-SW 192 0 min 0,000 mm 0,6 UV-I 184 W/m 8,4 C 10,2 C 22,5 km/h (4 Bft) 94,23 %
15.04.2017 17:10 13,8 C 69 % 1012,0 hPa 0,0 l/m 14,7 km/h (3 Bft) W-SW 238 0 min 0,000 mm 0,6 UV-I 187 W/m 8,2 C 9,8 C 22,5 km/h (4 Bft) 100,00 %
15.04.2017 17:12 13,8 C 70 % 1012,0 hPa 0,0 l/m 13,5 km/h (3 Bft) S-SO 167 0 min 0,000 mm 0,6 UV-I 200 W/m 8,4 C 10,3 C 17,7 km/h (3 Bft) 100,00 %
15.04.2017 17:14 13,8 C 67 % 1012,0 hPa 0,0 l/m 17,3 km/h (3 Bft) W-SW 243 0 min 0,000 mm 0,6 UV-I 207 W/m 7,8 C 9,0 C 27,4 km/h (4 Bft) 93,62 %
15.04.2017 17:16 13,8 C 67 % 1012,1 hPa 0,0 l/m 14,6 km/h (3 Bft) SW 232 0 min 0,000 mm 0,6 UV-I 208 W/m 7,8 C 9,9 C 20,9 km/h (4 Bft) 95,56 %
15.04.2017 17:18 13,9 C 67 % 1012,0 hPa 0,0 l/m 13,2 km/h (3 Bft) W 262 0 min 0,000 mm 0,6 UV-I 225 W/m 7,9 C 10,5 C 20,9 km/h (4 Bft) 97,87 %
15.04.2017 17:20 13,9 C 66 % 1012,1 hPa 0,0 l/m 18,7 km/h (3 Bft) W-SW 244 0 min 0,000 mm 0,6 UV-I 222 W/m 7,7 C 8,7 C 27,4 km/h (4 Bft) 95,45 %
15.04.2017 17:22 13,9 C 67 % 1012,0 hPa 0,0 l/m 12,6 km/h (3 Bft) SW 234 0 min 0,000 mm 0,5 UV-I 197 W/m 7,9 C 10,8 C 17,7 km/h (3 Bft) 98,11 %
15.04.2017 17:24 13,9 C 68 % 1012,1 hPa 0,0 l/m 13,4 km/h (3 Bft) W 265 0 min 0,000 mm 0,1 UV-I 166 W/m 8,1 C 10,4 C 19,3 km/h (3 Bft) 92,68 %
15.04.2017 17:26 13,9 C 67 % 1012,1 hPa 0,0 l/m 12,9 km/h (3 Bft) W 275 0 min 0,000 mm 0,0 UV-I 143 W/m 7,9 C 10,6 C 19,3 km/h (3 Bft) 97,87 %
15.04.2017 17:28 13,9 C 66 % 1012,1 hPa 0,0 l/m 11,2 km/h (2 Bft) W 265 0 min 0,000 mm 0,0 UV-I 129 W/m 7,7 C 11,3 C 17,7 km/h (3 Bft) 95,45 %
15.04.2017 17:30 13,9 C 67 % 1012,1 hPa 0,0 l/m 12,0 km/h (2 Bft) W-SW 257 0 min 0,000 mm 0,0 UV-I 134 W/m 7,9 C 11,0 C 16,1 km/h (3 Bft) 98,15 %
15.04.2017 17:32 13,9 C 67 % 1012,1 hPa 0,0 l/m 10,6 km/h (2 Bft) W 268 0 min 0,000 mm 0,0 UV-I 157 W/m 7,9 C 11,6 C 16,1 km/h (3 Bft) 100,00 %
15.04.2017 17:34 13,9 C 66 % 1012,2 hPa 0,0 l/m 12,3 km/h (3 Bft) S-SW 198 0 min 0,000 mm 0,4 UV-I 156 W/m 7,7 C 10,9 C 20,9 km/h (4 Bft) 97,37 %
15.04.2017 17:36 13,9 C 67 % 1012,2 hPa 0,0 l/m 13,0 km/h (3 Bft) W-SW 256 0 min 0,000 mm 0,0 UV-I 179 W/m 7,9 C 10,6 C 17,7 km/h (3 Bft) 96,00 %
15.04.2017 17:38 13,9 C 68 % 1012,2 hPa 0,0 l/m 14,3 km/h (3 Bft) SW 221 2 min 0,000 mm 0,5 UV-I 221 W/m 8,1 C 10,1 C 24,1 km/h (4 Bft) 97,87 %
15.04.2017 17:40 13,9 C 68 % 1012,3 hPa 0,0 l/m 21,8 km/h (4 Bft) SW 229 2 min 0,000 mm 0,5 UV-I 227 W/m 8,1 C 7,9 C 37,0 km/h (5 Bft) 98,00 %
15.04.2017 17:42 13,7 C 67 % 1012,3 hPa 0,0 l/m 24,8 km/h (4 Bft) W-SW 240 2 min 0,000 mm 0,5 UV-I 207 W/m 7,7 C 6,9 C 38,6 km/h (5 Bft) 92,00 %
15.04.2017 17:44 13,3 C 67 % 1012,3 hPa 0,0 l/m 23,8 km/h (4 Bft) SW 229 0 min 0,000 mm 0,5 UV-I 186 W/m 7,3 C 6,6 C 40,2 km/h (6 Bft) 92,68 %
15.04.2017 17:46 13,1 C 69 % 1012,3 hPa 0,0 l/m 20,8 km/h (4 Bft) S-SW 200 0 min 0,000 mm 0,5 UV-I 180 W/m 7,5 C 7,1 C 35,4 km/h (5 Bft) 98,00 %
15.04.2017 17:48 12,9 C 69 % 1012,2 hPa 0,0 l/m 19,8 km/h (3 Bft) W-SW 242 2 min 0,000 mm 0,5 UV-I 217 W/m 7,4 C 7,1 C 29,0 km/h (5 Bft) 95,45 %
15.04.2017 17:50 12,8 C 69 % 1012,2 hPa 0,0 l/m 21,0 km/h (4 Bft) S-SW 202 2 min 0,000 mm 0,5 UV-I 218 W/m 7,3 C 6,6 C 29,0 km/h (5 Bft) 95,24 %
15.04.2017 17:52 12,7 C 70 % 1012,2 hPa 0,0 l/m 18,2 km/h (3 Bft) S-SW 203 2 min 0,000 mm 0,4 UV-I 216 W/m 7,4 C 7,3 C 25,7 km/h (4 Bft) 98,00 %
15.04.2017 17:54 12,6 C 71 % 1012,1 hPa 0,0 l/m 17,1 km/h (3 Bft) SW 219 2 min 0,000 mm 0,0 UV-I 196 W/m 7,5 C 7,5 C 27,4 km/h (4 Bft) 98,00 %
15.04.2017 17:56 12,5 C 71 % 1012,1 hPa 0,0 l/m 16,3 km/h (3 Bft) SW 216 0 min 0,000 mm 0,0 UV-I 173 W/m 7,4 C 7,7 C 27,4 km/h (4 Bft) 96,00 %
15.04.2017 17:58 12,4 C 72 % 1012,1 hPa 0,0 l/m 12,7 km/h (3 Bft) S-SW 207 0 min 0,000 mm 0,0 UV-I 160 W/m 7,5 C 9,0 C 22,5 km/h (4 Bft) 95,12 %
15.04.2017 18:00 12,3 C 73 % 1012,1 hPa 0,0 l/m 11,8 km/h (2 Bft) SW 221 0 min 0,152 mm 0,0 UV-I 142 W/m 7,6 C 9,3 C 17,7 km/h (3 Bft) 92,45 %
15.04.2017 18:02 12,3 C 73 % 1012,1 hPa 0,0 l/m 13,7 km/h (3 Bft) S-SW 196 0 min 0,000 mm 0,0 UV-I 127 W/m 7,6 C 8,4 C 20,9 km/h (4 Bft) 97,56 %
15.04.2017 18:04 12,3 C 74 % 1012,1 hPa 0,0 l/m 10,5 km/h (2 Bft) S-SW 210 0 min 0,000 mm 0,0 UV-I 116 W/m 7,8 C 9,9 C 17,7 km/h (3 Bft) 98,00 %
15.04.2017 18:06 12,2 C 74 % 1012,1 hPa 0,0 l/m 12,2 km/h (2 Bft) SW 229 0 min 0,000 mm 0,0 UV-I 108 W/m 7,7 C 9,0 C 19,3 km/h (3 Bft) 96,00 %
15.04.2017 18:08 12,2 C 75 % 1012,1 hPa 0,0 l/m 9,9 km/h (2 Bft) S 176 0 min 0,000 mm 0,0 UV-I 106 W/m 7,9 C 10,1 C 14,5 km/h (3 Bft) 94,74 %
15.04.2017 18:10 12,1 C 74 % 1012,1 hPa 0,0 l/m 12,9 km/h (3 Bft) SW 217 0 min 0,000 mm 0,0 UV-I 104 W/m 7,6 C 8,5 C 20,9 km/h (4 Bft) 91,49 %
15.04.2017 18:12 12,1 C 75 % 1012,0 hPa 0,0 l/m 11,1 km/h (2 Bft) S 175 0 min 0,000 mm 0,0 UV-I 99 W/m 7,8 C 9,4 C 16,1 km/h (3 Bft) 94,34 %
15.04.2017 18:14 12,0 C 75 % 1012,1 hPa 0,0 l/m 7,8 km/h (2 Bft) SW 235 0 min 0,000 mm 0,0 UV-I 92 W/m 7,7 C 11,1 C 12,9 km/h (3 Bft) 94,74 %
15.04.2017 18:16 12,0 C 75 % 1012,1 hPa 0,0 l/m 9,4 km/h (2 Bft) S-SW 212 0 min 0,000 mm 0,0 UV-I 84 W/m 7,7 C 10,1 C 14,5 km/h (3 Bft) 94,64 %
15.04.2017 18:18 12,0 C 76 % 1012,1 hPa 0,0 l/m 11,6 km/h (2 Bft) S-SW 198 0 min 0,000 mm 0,0 UV-I 74 W/m 7,9 C 9,0 C 19,3 km/h (3 Bft) 93,62 %
15.04.2017 18:20 11,9 C 75 % 1012,1 hPa 0,0 l/m 14,5 km/h (3 Bft) SW 235 0 min 0,000 mm 0,0 UV-I 66 W/m 7,6 C 7,6 C 24,1 km/h (4 Bft) 97,56 %
15.04.2017 18:22 11,9 C 76 % 1012,1 hPa 0,0 l/m 13,9 km/h (3 Bft) SW 215 0 min 0,000 mm 0,0 UV-I 56 W/m 7,8 C 7,9 C 22,5 km/h (4 Bft) 98,00 %
15.04.2017 18:24 11,9 C 76 % 1012,0 hPa 0,0 l/m 12,6 km/h (3 Bft) W-SW 245 0 min 0,000 mm 0,0 UV-I 47 W/m 7,8 C 8,4 C 17,7 km/h (3 Bft) 95,12 %
15.04.2017 18:26 11,9 C 76 % 1012,0 hPa 0,0 l/m 10,9 km/h (2 Bft) S-SW 202 0 min 0,000 mm 0,0 UV-I 42 W/m 7,8 C 9,2 C 16,1 km/h (3 Bft) 100,00 %
15.04.2017 18:28 11,8 C 76 % 1012,0 hPa 0,0 l/m 10,4 km/h (2 Bft) SW 231 0 min 0,000 mm 0,0 UV-I 41 W/m 7,7 C 9,4 C 16,1 km/h (3 Bft) 97,62 %
15.04.2017 18:30 11,8 C 77 % 1012,0 hPa 0,0 l/m 12,1 km/h (2 Bft) S-SW 211 0 min 0,000 mm 0,0 UV-I 39 W/m 7,9 C 8,5 C 17,7 km/h (3 Bft) 95,45 %
15.04.2017 18:32 11,8 C 77 % 1012,0 hPa 0,0 l/m 10,1 km/h (2 Bft) SW 224 0 min 0,000 mm 0,0 UV-I 35 W/m 7,9 C 9,5 C 17,7 km/h (3 Bft) 98,11 %
15.04.2017 18:34 11,7 C 78 % 1012,0 hPa 0,0 l/m 7,3 km/h (2 Bft) W-SW 237 0 min 0,000 mm 0,0 UV-I 31 W/m 8,0 C 11,1 C 11,3 km/h (2 Bft) 97,56 %
15.04.2017 18:36 11,7 C 78 % 1012,0 hPa 0,0 l/m 9,9 km/h (2 Bft) SW 232 0 min 0,000 mm 0,0 UV-I 28 W/m 8,0 C 9,5 C 14,5 km/h (3 Bft) 100,00 %
15.04.2017 18:38 11,7 C 78 % 1012,0 hPa 0,0 l/m 8,3 km/h (2 Bft) S-SW 211 0 min 0,000 mm 0,0 UV-I 29 W/m 8,0 C 10,5 C 12,9 km/h (3 Bft) 98,11 %
15.04.2017 18:40 11,7 C 78 % 1011,9 hPa 0,0 l/m 9,1 km/h (2 Bft) SW 225 0 min 0,000 mm 0,0 UV-I 31 W/m 8,0 C 10,0 C 17,7 km/h (3 Bft) 86,84 %
15.04.2017 18:42 11,7 C 78 % 1012,0 hPa 0,0 l/m 13,6 km/h (3 Bft) SW 228 0 min 0,000 mm 0,0 UV-I 33 W/m 8,0 C 7,8 C 22,5 km/h (4 Bft) 100,00 %
15.04.2017 18:44 11,7 C 78 % 1011,9 hPa 0,0 l/m 11,4 km/h (2 Bft) S-SW 213 0 min 0,000 mm 0,0 UV-I 32 W/m 8,0 C 8,8 C 17,7 km/h (3 Bft) 94,74 %
15.04.2017 18:46 11,8 C 78 % 1012,0 hPa 0,0 l/m 11,8 km/h (2 Bft) S-SW 212 0 min 0,000 mm 0,0 UV-I 32 W/m 8,1 C 8,7 C 20,9 km/h (4 Bft) 92,00 %
15.04.2017 18:48 11,8 C 78 % 1012,0 hPa 0,0 l/m 10,1 km/h (2 Bft) W-SW 243 0 min 0,000 mm 0,0 UV-I 32 W/m 8,1 C 9,5 C 20,9 km/h (4 Bft) 98,11 %
15.04.2017 18:50 11,8 C 78 % 1011,9 hPa 0,0 l/m 12,2 km/h (2 Bft) W-SW 246 0 min 0,000 mm 0,0 UV-I 33 W/m 8,1 C 8,5 C 20,9 km/h (4 Bft) 97,56 %
15.04.2017 18:52 11,8 C 78 % 1011,9 hPa 0,0 l/m 9,7 km/h (2 Bft) SW 227 0 min 0,000 mm 0,0 UV-I 35 W/m 8,1 C 9,7 C 16,1 km/h (3 Bft) 97,56 %
15.04.2017 18:54 11,9 C 78 % 1011,9 hPa 0,0 l/m 10,3 km/h (2 Bft) S-SW 211 0 min 0,000 mm 0,0 UV-I 37 W/m 8,2 C 9,5 C 17,7 km/h (3 Bft) 98,00 %
15.04.2017 18:56 11,9 C 77 % 1011,9 hPa 0,0 l/m 9,7 km/h (2 Bft) SW 221 0 min 0,000 mm 0,0 UV-I 38 W/m 8,0 C 9,9 C 16,1 km/h (3 Bft) 92,45 %
15.04.2017 18:58 11,9 C 77 % 1011,9 hPa 0,0 l/m 12,3 km/h (3 Bft) W 265 0 min 0,000 mm 0,0 UV-I 34 W/m 8,0 C 8,6 C 19,3 km/h (3 Bft) 87,80 %
15.04.2017 19:00 11,9 C 77 % 1011,9 hPa 0,0 l/m 12,1 km/h (2 Bft) S-SW 209 0 min 0,051 mm 0,0 UV-I 30 W/m 8,0 C 8,7 C 16,1 km/h (3 Bft) 98,21 %
15.04.2017 19:02 12,0 C 77 % 1011,9 hPa 0,0 l/m 10,9 km/h (2 Bft) SW 231 0 min 0,000 mm 0,0 UV-I 26 W/m 8,1 C 9,3 C 16,1 km/h (3 Bft) 95,12 %
15.04.2017 19:04 12,0 C 76 % 1011,9 hPa 0,0 l/m 10,7 km/h (2 Bft) SW 221 0 min 0,000 mm 0,0 UV-I 26 W/m 7,9 C 9,4 C 17,7 km/h (3 Bft) 98,00 %
15.04.2017 19:06 12,1 C 76 % 1011,9 hPa 0,0 l/m 12,7 km/h (3 Bft) S-SW 211 0 min 0,000 mm 0,0 UV-I 25 W/m 8,0 C 8,6 C 19,3 km/h (3 Bft) 100,00 %
15.04.2017 19:08 12,1 C 76 % 1011,9 hPa 0,0 l/m 12,1 km/h (2 Bft) SW 235 0 min 0,000 mm 0,0 UV-I 23 W/m 8,0 C 8,9 C 17,7 km/h (3 Bft) 100,00 %
15.04.2017 19:10 12,1 C 77 % 1011,9 hPa 0,0 l/m 13,4 km/h (3 Bft) S-SW 192 0 min 0,000 mm 0,0 UV-I 23 W/m 8,2 C 8,3 C 20,9 km/h (4 Bft) 97,56 %
15.04.2017 19:12 12,1 C 77 % 1011,9 hPa 0,0 l/m 17,3 km/h (3 Bft) S-SW 200 0 min 0,000 mm 0,0 UV-I 23 W/m 8,2 C 6,9 C 24,1 km/h (4 Bft) 100,00 %
15.04.2017 19:14 12,1 C 77 % 1011,9 hPa 0,0 l/m 14,0 km/h (3 Bft) S-SW 213 0 min 0,000 mm 0,0 UV-I 24 W/m 8,2 C 8,1 C 22,5 km/h (4 Bft) 98,00 %
15.04.2017 19:16 12,1 C 77 % 1011,9 hPa 0,0 l/m 18,6 km/h (3 Bft) W-SW 244 0 min 0,000 mm 0,0 UV-I 25 W/m 8,2 C 6,4 C 27,4 km/h (4 Bft) 93,10 %
15.04.2017 19:18 12,1 C 77 % 1011,9 hPa 0,0 l/m 15,9 km/h (3 Bft) SW 222 0 min 0,000 mm 0,0 UV-I 26 W/m 8,2 C 7,3 C 24,1 km/h (4 Bft) 100,00 %
15.04.2017 19:20 12,1 C 77 % 1011,9 hPa 0,0 l/m 14,0 km/h (3 Bft) W-SW 247 0 min 0,000 mm 0,0 UV-I 27 W/m 8,2 C 8,1 C 22,5 km/h (4 Bft) 98,00 %
15.04.2017 19:22 12,1 C 77 % 1011,9 hPa 0,0 l/m 13,6 km/h (3 Bft) W-SW 248 0 min 0,000 mm 0,0 UV-I 28 W/m 8,2 C 8,2 C 20,9 km/h (4 Bft) 100,00 %
15.04.2017 19:24 12,1 C 77 % 1011,9 hPa 0,0 l/m 14,8 km/h (3 Bft) SW 214 0 min 0,000 mm 0,0 UV-I 28 W/m 8,2 C 7,8 C 22,5 km/h (4 Bft) 98,11 %
15.04.2017 19:26 12,1 C 77 % 1012,0 hPa 0,0 l/m 16,4 km/h (3 Bft) SW 231 0 min 0,000 mm 0,0 UV-I 26 W/m 8,2 C 7,2 C 24,1 km/h (4 Bft) 95,12 %
15.04.2017 19:28 12,1 C 77 % 1012,0 hPa 0,0 l/m 13,4 km/h (3 Bft) W-SW 237 0 min 0,000 mm 0,0 UV-I 25 W/m 8,2 C 8,3 C 20,9 km/h (4 Bft) 95,12 %
15.04.2017 19:30 12,1 C 77 % 1012,0 hPa 0,0 l/m 13,9 km/h (3 Bft) W-SW 245 0 min 0,000 mm 0,0 UV-I 23 W/m 8,2 C 8,1 C 20,9 km/h (4 Bft) 96,61 %
15.04.2017 19:32 12,1 C 77 % 1011,9 hPa 0,0 l/m 18,1 km/h (3 Bft) SW 219 0 min 0,000 mm 0,0 UV-I 22 W/m 8,2 C 6,6 C 24,1 km/h (4 Bft) 100,00 %
15.04.2017 19:34 12,1 C 77 % 1012,0 hPa 0,0 l/m 12,6 km/h (3 Bft) W-SW 250 0 min 0,000 mm 0,0 UV-I 21 W/m 8,2 C 8,7 C 16,1 km/h (3 Bft) 92,68 %
15.04.2017 19:36 12,1 C 77 % 1012,0 hPa 0,0 l/m 14,6 km/h (3 Bft) SW 219 0 min 0,000 mm 0,0 UV-I 20 W/m 8,2 C 7,8 C 24,1 km/h (4 Bft) 100,00 %
15.04.2017 19:38 12,1 C 77 % 1012,1 hPa 0,0 l/m 15,1 km/h (3 Bft) S-SW 213 2 min 0,000 mm 0,0 UV-I 18 W/m 8,2 C 7,6 C 20,9 km/h (4 Bft) 97,56 %
15.04.2017 19:40 12,1 C 77 % 1012,1 hPa 0,0 l/m 11,1 km/h (2 Bft) SW 215 2 min 0,000 mm 0,0 UV-I 16 W/m 8,2 C 9,4 C 17,7 km/h (3 Bft) 98,11 %
15.04.2017 19:42 12,1 C 77 % 1012,0 hPa 0,0 l/m 15,3 km/h (3 Bft) W-SW 248 2 min 0,000 mm 0,0 UV-I 13 W/m 8,2 C 7,6 C 24,1 km/h (4 Bft) 95,12 %
15.04.2017 19:44 12,1 C 76 % 1012,0 hPa 0,0 l/m 15,1 km/h (3 Bft) SW 216 0 min 0,000 mm 0,0 UV-I 11 W/m 8,0 C 7,6 C 24,1 km/h (4 Bft) 96,43 %
15.04.2017 19:46 12,1 C 75 % 1012,1 hPa 0,0 l/m 15,7 km/h (3 Bft) W-SW 239 0 min 0,000 mm 0,0 UV-I 9 W/m 7,8 C 7,4 C 25,7 km/h (4 Bft) 97,87 %
15.04.2017 19:48 12,1 C 74 % 1012,0 hPa 0,0 l/m 19,4 km/h (3 Bft) SW 232 0 min 0,000 mm 0,0 UV-I 8 W/m 7,6 C 6,2 C 27,4 km/h (4 Bft) 94,44 %
15.04.2017 19:50 12,1 C 74 % 1012,1 hPa 0,0 l/m 14,9 km/h (3 Bft) SW 218 0 min 0,000 mm 0,0 UV-I 7 W/m 7,6 C 7,7 C 27,4 km/h (4 Bft) 94,64 %
15.04.2017 19:52 12,1 C 74 % 1012,1 hPa 0,0 l/m 19,1 km/h (3 Bft) W-SW 238 0 min 0,000 mm 0,0 UV-I 7 W/m 7,6 C 6,3 C 27,4 km/h (4 Bft) 96,15 %
15.04.2017 19:54 12,1 C 74 % 1012,1 hPa 0,0 l/m 17,0 km/h (3 Bft) W-SW 238 0 min 0,000 mm 0,0 UV-I 5 W/m 7,6 C 7,0 C 27,4 km/h (4 Bft) 95,59 %
15.04.2017 19:56 12,1 C 74 % 1012,1 hPa 0,0 l/m 15,8 km/h (3 Bft) S-SW 192 0 min 0,000 mm 0,0 UV-I 5 W/m 7,6 C 7,4 C 24,1 km/h (4 Bft) 95,12 %
15.04.2017 19:58 12,0 C 74 % 1012,2 hPa 0,0 l/m 15,6 km/h (3 Bft) W-SW 240 0 min 0,000 mm 0,0 UV-I 0 W/m 7,5 C 7,3 C 27,4 km/h (4 Bft) 92,45 %
15.04.2017 20:00 12,0 C 74 % 1012,1 hPa 0,0 l/m 14,5 km/h (3 Bft) W-SW 248 0 min 0,051 mm 0,0 UV-I 0 W/m 7,5 C 7,8 C 25,7 km/h (4 Bft) 92,68 %
15.04.2017 20:02 11,9 C 74 % 1012,2 hPa 0,0 l/m 13,9 km/h (3 Bft) SW 236 0 min 0,000 mm 0,0 UV-I 0 W/m 7,4 C 7,9 C 20,9 km/h (4 Bft) 94,34 %
15.04.2017 20:04 11,9 C 74 % 1012,2 hPa 0,0 l/m 15,6 km/h (3 Bft) W-SW 244 0 min 0,000 mm 0,0 UV-I 0 W/m 7,4 C 7,2 C 27,4 km/h (4 Bft) 95,12 %
15.04.2017 20:06 11,9 C 74 % 1012,2 hPa 0,0 l/m 15,9 km/h (3 Bft) S-SW 209 0 min 0,000 mm 0,0 UV-I 0 W/m 7,4 C 7,1 C 22,5 km/h (4 Bft) 96,23 %
15.04.2017 20:08 11,9 C 74 % 1012,2 hPa 0,0 l/m 19,1 km/h (3 Bft) W-SW 240 0 min 0,000 mm 0,0 UV-I 0 W/m 7,4 C 6,0 C 25,7 km/h (4 Bft) 94,74 %
15.04.2017 20:10 11,9 C 74 % 1012,3 hPa 0,0 l/m 12,5 km/h (3 Bft) W-SW 258 0 min 0,000 mm 0,0 UV-I 0 W/m 7,4 C 8,5 C 22,5 km/h (4 Bft) 96,00 %
15.04.2017 20:12 11,9 C 74 % 1012,3 hPa 0,0 l/m 19,7 km/h (3 Bft) W-SW 252 0 min 0,000 mm 0,0 UV-I 0 W/m 7,4 C 5,8 C 29,0 km/h (5 Bft) 95,12 %
15.04.2017 20:14 11,8 C 75 % 1012,3 hPa 0,0 l/m 15,8 km/h (3 Bft) S-SW 208 0 min 0,000 mm 0,0 UV-I 0 W/m 7,5 C 7,0 C 30,6 km/h (5 Bft) 96,23 %
15.04.2017 20:16 11,8 C 75 % 1012,4 hPa 0,0 l/m 17,0 km/h (3 Bft) S-SW 211 0 min 0,000 mm 0,0 UV-I 0 W/m 7,5 C 6,6 C 25,7 km/h (4 Bft) 96,00 %
15.04.2017 20:18 11,8 C 75 % 1012,4 hPa 0,0 l/m 13,6 km/h (3 Bft) SW 217 0 min 0,000 mm 0,0 UV-I 0 W/m 7,5 C 7,9 C 20,9 km/h (4 Bft) 92,00 %
15.04.2017 20:20 11,8 C 75 % 1012,5 hPa 0,0 l/m 17,2 km/h (3 Bft) SW 227 0 min 0,000 mm 0,0 UV-I 0 W/m 7,5 C 6,5 C 27,4 km/h (4 Bft) 100,00 %
15.04.2017 20:22 11,8 C 75 % 1012,4 hPa 0,0 l/m 16,3 km/h (3 Bft) SW 219 0 min 0,000 mm 0,0 UV-I 0 W/m 7,5 C 6,8 C 24,1 km/h (4 Bft) 91,49 %
15.04.2017 20:24 11,7 C 76 % 1012,5 hPa 0,0 l/m 12,0 km/h (2 Bft) W-SW 254 0 min 0,000 mm 0,0 UV-I 0 W/m 7,6 C 8,5 C 24,1 km/h (4 Bft) 98,21 %
15.04.2017 20:26 11,7 C 76 % 1012,5 hPa 0,0 l/m 16,8 km/h (3 Bft) W-SW 253 0 min 0,000 mm 0,0 UV-I 0 W/m 7,6 C 6,5 C 22,5 km/h (4 Bft) 95,45 %
15.04.2017 20:28 11,7 C 76 % 1012,6 hPa 0,0 l/m 17,5 km/h (3 Bft) SW 234 0 min 0,000 mm 0,0 UV-I 0 W/m 7,6 C 6,3 C 25,7 km/h (4 Bft) 97,78 %
15.04.2017 20:30 11,7 C 77 % 1012,6 hPa 0,0 l/m 19,4 km/h (3 Bft) W-SW 249 0 min 0,000 mm 0,0 UV-I 0 W/m 7,8 C 5,7 C 30,6 km/h (5 Bft) 97,73 %
15.04.2017 20:32 11,7 C 77 % 1012,6 hPa 0,0 l/m 17,5 km/h (3 Bft) W-SW 251 0 min 0,000 mm 0,0 UV-I 0 W/m 7,8 C 6,3 C 27,4 km/h (4 Bft) 98,11 %
15.04.2017 20:34 11,6 C 77 % 1012,6 hPa 0,0 l/m 13,7 km/h (3 Bft) W-SW 241 0 min 0,000 mm 0,0 UV-I 0 W/m 7,7 C 7,6 C 22,5 km/h (4 Bft) 97,37 %
15.04.2017 20:36 11,6 C 77 % 1012,6 hPa 0,0 l/m 19,8 km/h (3 Bft) W-SW 240 0 min 0,000 mm 0,0 UV-I 0 W/m 7,7 C 5,4 C 30,6 km/h (5 Bft) 98,00 %
15.04.2017 20:38 11,6 C 77 % 1012,6 hPa 0,0 l/m 17,3 km/h (3 Bft) W 262 0 min 0,000 mm 0,0 UV-I 0 W/m 7,7 C 6,2 C 25,7 km/h (4 Bft) 97,73 %
15.04.2017 20:40 11,6 C 78 % 1012,6 hPa 0,0 l/m 19,0 km/h (3 Bft) W-SW 239 0 min 0,000 mm 0,0 UV-I 0 W/m 7,9 C 5,7 C 29,0 km/h (5 Bft) 92,45 %
15.04.2017 20:42 11,6 C 78 % 1012,7 hPa 0,0 l/m 20,3 km/h (4 Bft) SW 218 0 min 0,000 mm 0,0 UV-I 0 W/m 7,9 C 5,3 C 29,0 km/h (5 Bft) 100,00 %
15.04.2017 20:44 11,5 C 78 % 1012,7 hPa 0,0 l/m 15,9 km/h (3 Bft) W-SW 238 0 min 0,000 mm 0,0 UV-I 0 W/m 7,8 C 6,6 C 22,5 km/h (4 Bft) 94,64 %
15.04.2017 20:46 11,4 C 78 % 1012,7 hPa 0,0 l/m 16,4 km/h (3 Bft) W-SW 254 0 min 0,000 mm 0,0 UV-I 0 W/m 7,7 C 6,3 C 20,9 km/h (4 Bft) 96,00 %
15.04.2017 20:48 11,4 C 79 % 1012,7 hPa 0,0 l/m 15,5 km/h (3 Bft) S-SW 197 0 min 0,000 mm 0,0 UV-I 0 W/m 7,9 C 6,6 C 24,1 km/h (4 Bft) 100,00 %
15.04.2017 20:50 11,4 C 79 % 1012,7 hPa 0,0 l/m 16,8 km/h (3 Bft) SW 226 0 min 0,000 mm 0,0 UV-I 0 W/m 7,9 C 6,2 C 27,4 km/h (4 Bft) 100,00 %
15.04.2017 20:52 11,3 C 80 % 1012,7 hPa 0,0 l/m 15,2 km/h (3 Bft) W-SW 241 0 min 0,000 mm 0,0 UV-I 0 W/m 8,0 C 6,6 C 24,1 km/h (4 Bft) 95,12 %
15.04.2017 20:54 11,3 C 80 % 1012,7 hPa 0,0 l/m 17,8 km/h (3 Bft) W-SW 241 0 min 0,000 mm 0,0 UV-I 0 W/m 8,0 C 5,7 C 25,7 km/h (4 Bft) 100,00 %
15.04.2017 20:56 11,3 C 80 % 1012,8 hPa 0,0 l/m 18,5 km/h (3 Bft) W-SW 250 0 min 0,000 mm 0,0 UV-I 0 W/m 8,0 C 5,4 C 27,4 km/h (4 Bft) 100,00 %
15.04.2017 20:58 11,3 C 79 % 1012,8 hPa 0,0 l/m 16,6 km/h (3 Bft) SW 214 0 min 0,000 mm 0,0 UV-I 0 W/m 7,8 C 6,1 C 25,7 km/h (4 Bft) 100,00 %
15.04.2017 21:00 11,3 C 79 % 1012,8 hPa 0,0 l/m 17,7 km/h (3 Bft) SW 226 0 min 0,051 mm 0,0 UV-I 0 W/m 7,8 C 5,7 C 24,1 km/h (4 Bft) 100,00 %
15.04.2017 21:02 11,3 C 80 % 1012,8 hPa 0,0 l/m 18,2 km/h (3 Bft) S-SW 213 0 min 0,000 mm 0,0 UV-I 0 W/m 8,0 C 5,5 C 27,4 km/h (4 Bft) 100,00 %
15.04.2017 21:04 11,3 C 79 % 1012,8 hPa 0,0 l/m 19,9 km/h (4 Bft) SW 225 0 min 0,000 mm 0,0 UV-I 0 W/m 7,8 C 5,0 C 25,7 km/h (4 Bft) 100,00 %
15.04.2017 21:06 11,3 C 80 % 1012,9 hPa 0,0 l/m 14,8 km/h (3 Bft) SW 236 0 min 0,000 mm 0,0 UV-I 0 W/m 8,0 C 6,8 C 19,3 km/h (3 Bft) 97,73 %
15.04.2017 21:08 11,2 C 80 % 1012,9 hPa 0,0 l/m 21,8 km/h (4 Bft) W-SW 254 0 min 0,000 mm 0,0 UV-I 0 W/m 7,9 C 4,3 C 30,6 km/h (5 Bft) 100,00 %
15.04.2017 21:10 11,3 C 80 % 1012,9 hPa 0,0 l/m 18,4 km/h (3 Bft) SW 222 0 min 0,000 mm 0,0 UV-I 0 W/m 8,0 C 5,5 C 29,0 km/h (5 Bft) 100,00 %
15.04.2017 21:12 11,2 C 80 % 1012,9 hPa 0,0 l/m 16,5 km/h (3 Bft) W 269 0 min 0,000 mm 0,0 UV-I 0 W/m 7,9 C 6,0 C 24,1 km/h (4 Bft) 98,11 %
15.04.2017 21:14 11,2 C 80 % 1013,0 hPa 0,0 l/m 17,4 km/h (3 Bft) SW 226 0 min 0,000 mm 0,0 UV-I 0 W/m 7,9 C 5,7 C 27,4 km/h (4 Bft) 100,00 %
15.04.2017 21:16 11,2 C 80 % 1013,0 hPa 0,0 l/m 16,3 km/h (3 Bft) W-SW 248 0 min 0,000 mm 0,0 UV-I 0 W/m 7,9 C 6,1 C 22,5 km/h (4 Bft) 100,00 %
15.04.2017 21:18 11,2 C 80 % 1013,0 hPa 0,0 l/m 15,0 km/h (3 Bft) W-SW 240 0 min 0,000 mm 0,0 UV-I 0 W/m 7,9 C 6,6 C 22,5 km/h (4 Bft) 100,00 %
15.04.2017 21:20 11,2 C 80 % 1013,0 hPa 0,0 l/m 15,8 km/h (3 Bft) W-SW 244 0 min 0,000 mm 0,0 UV-I 0 W/m 7,9 C 6,3 C 24,1 km/h (4 Bft) 100,00 %
15.04.2017 21:22 11,2 C 80 % 1013,1 hPa 0,0 l/m 17,3 km/h (3 Bft) W 260 0 min 0,000 mm 0,0 UV-I 0 W/m 7,9 C 5,7 C 24,1 km/h (4 Bft) 100,00 %
15.04.2017 21:24 11,2 C 80 % 1013,1 hPa 0,0 l/m 15,6 km/h (3 Bft) SW 225 0 min 0,000 mm 0,0 UV-I 0 W/m 7,9 C 6,4 C 20,9 km/h (4 Bft) 98,21 %
15.04.2017 21:26 11,2 C 81 % 1013,1 hPa 0,0 l/m 14,3 km/h (3 Bft) W-SW 244 0 min 0,000 mm 0,0 UV-I 0 W/m 8,1 C 6,9 C 24,1 km/h (4 Bft) 100,00 %
15.04.2017 21:28 11,2 C 81 % 1013,1 hPa 0,0 l/m 16,4 km/h (3 Bft) W-SW 238 0 min 0,000 mm 0,0 UV-I 0 W/m 8,1 C 6,1 C 24,1 km/h (4 Bft) 100,00 %
15.04.2017 21:30 11,2 C 81 % 1013,1 hPa 0,0 l/m 16,0 km/h (3 Bft) W-SW 242 0 min 0,000 mm 0,0 UV-I 0 W/m 8,1 C 6,2 C 25,7 km/h (4 Bft) 100,00 %
15.04.2017 21:32 11,1 C 81 % 1013,1 hPa 0,0 l/m 16,8 km/h (3 Bft) SW 227 0 min 0,000 mm 0,0 UV-I 0 W/m 8,0 C 5,8 C 25,7 km/h (4 Bft) 100,00 %
15.04.2017 21:34 11,1 C 81 % 1013,1 hPa 0,0 l/m 17,3 km/h (3 Bft) SW 236 0 min 0,000 mm 0,0 UV-I 0 W/m 8,0 C 5,6 C 27,4 km/h (4 Bft) 100,00 %
15.04.2017 21:36 11,1 C 82 % 1013,1 hPa 0,0 l/m 16,0 km/h (3 Bft) W 260 0 min 0,000 mm 0,0 UV-I 0 W/m 8,1 C 6,1 C 24,1 km/h (4 Bft) 100,00 %
15.04.2017 21:38 11,0 C 82 % 1013,1 hPa 0,0 l/m 14,2 km/h (3 Bft) W 270 0 min 0,000 mm 0,0 UV-I 0 W/m 8,0 C 6,7 C 20,9 km/h (4 Bft) 98,11 %
15.04.2017 21:40 10,9 C 83 % 1013,1 hPa 0,0 l/m 13,3 km/h (3 Bft) W-SW 238 0 min 0,000 mm 0,0 UV-I 0 W/m 8,1 C 6,9 C 19,3 km/h (3 Bft) 100,00 %
15.04.2017 21:42 10,8 C 84 % 1013,1 hPa 0,0 l/m 14,1 km/h (3 Bft) SW 223 0 min 0,000 mm 0,0 UV-I 0 W/m 8,2 C 6,5 C 20,9 km/h (4 Bft) 100,00 %
15.04.2017 21:44 10,7 C 84 % 1013,1 hPa 0,0 l/m 13,8 km/h (3 Bft) SW 225 0 min 0,000 mm 0,0 UV-I 0 W/m 8,1 C 6,5 C 22,5 km/h (4 Bft) 100,00 %
15.04.2017 21:46 10,7 C 85 % 1013,1 hPa 0,0 l/m 17,4 km/h (3 Bft) SW 231 0 min 0,000 mm 0,0 UV-I 0 W/m 8,3 C 5,1 C 24,1 km/h (4 Bft) 100,00 %
15.04.2017 21:48 10,7 C 85 % 1013,2 hPa 0,0 l/m 15,0 km/h (3 Bft) W-SW 250 0 min 0,000 mm 0,0 UV-I 0 W/m 8,3 C 6,0 C 22,5 km/h (4 Bft) 100,00 %
15.04.2017 21:50 10,6 C 85 % 1013,1 hPa 0,2 l/m 15,8 km/h (3 Bft) SW 221 0 min 0,000 mm 0,0 UV-I 0 W/m 8,2 C 5,5 C 22,5 km/h (4 Bft) 97,73 %
15.04.2017 21:52 10,6 C 85 % 1013,2 hPa 0,0 l/m 11,5 km/h (2 Bft) W-SW 240 0 min 0,000 mm 0,0 UV-I 0 W/m 8,2 C 7,5 C 16,1 km/h (3 Bft) 98,21 %
15.04.2017 21:54 10,6 C 86 % 1013,2 hPa 0,0 l/m 13,2 km/h (3 Bft) SW 227 0 min 0,000 mm 0,0 UV-I 0 W/m 8,4 C 6,6 C 22,5 km/h (4 Bft) 96,15 %
15.04.2017 21:56 10,5 C 86 % 1013,1 hPa 0,0 l/m 17,0 km/h (3 Bft) SW 233 0 min 0,000 mm 0,0 UV-I 0 W/m 8,3 C 5,0 C 25,7 km/h (4 Bft) 98,53 %
15.04.2017 21:58 10,5 C 86 % 1013,1 hPa 0,0 l/m 14,7 km/h (3 Bft) SW 227 0 min 0,000 mm 0,0 UV-I 0 W/m 8,3 C 5,9 C 20,9 km/h (4 Bft) 97,37 %
15.04.2017 22:00 10,4 C 86 % 1013,1 hPa 0,0 l/m 15,0 km/h (3 Bft) W-SW 254 0 min 0,000 mm 0,0 UV-I 0 W/m 8,2 C 5,6 C 20,9 km/h (4 Bft) 95,74 %
15.04.2017 22:02 10,4 C 86 % 1013,1 hPa 0,0 l/m 11,8 km/h (2 Bft) SW 219 0 min 0,025 mm 0,0 UV-I 0 W/m 8,2 C 7,1 C 17,7 km/h (3 Bft) 97,87 %
15.04.2017 22:04 10,4 C 87 % 1013,1 hPa 0,2 l/m 13,5 km/h (3 Bft) SW 226 0 min 0,000 mm 0,0 UV-I 0 W/m 8,3 C 6,3 C 17,7 km/h (3 Bft) 96,23 %
15.04.2017 22:06 10,4 C 87 % 1013,1 hPa 0,0 l/m 15,4 km/h (3 Bft) S-SW 206 0 min 0,000 mm 0,0 UV-I 0 W/m 8,3 C 5,5 C 22,5 km/h (4 Bft) 95,12 %
15.04.2017 22:08 10,4 C 87 % 1013,1 hPa 0,0 l/m 12,5 km/h (3 Bft) W-SW 250 0 min 0,000 mm 0,0 UV-I 0 W/m 8,3 C 6,7 C 22,5 km/h (4 Bft) 98,21 %
15.04.2017 22:10 10,4 C 86 % 1013,1 hPa 0,0 l/m 15,9 km/h (3 Bft) SW 215 0 min 0,000 mm 0,0 UV-I 0 W/m 8,2 C 5,3 C 22,5 km/h (4 Bft) 95,74 %
15.04.2017 22:12 10,4 C 86 % 1013,2 hPa 0,0 l/m 13,3 km/h (3 Bft) SW 232 0 min 0,000 mm 0,0 UV-I 0 W/m 8,2 C 6,4 C 17,7 km/h (3 Bft) 97,37 %
15.04.2017 22:14 10,4 C 86 % 1013,2 hPa 0,0 l/m 11,9 km/h (2 Bft) S-SW 208 0 min 0,000 mm 0,0 UV-I 0 W/m 8,2 C 7,0 C 19,3 km/h (3 Bft) 98,00 %
15.04.2017 22:16 10,4 C 86 % 1013,2 hPa 0,0 l/m 13,3 km/h (3 Bft) SW 226 0 min 0,000 mm 0,0 UV-I 0 W/m 8,2 C 6,4 C 20,9 km/h (4 Bft) 97,87 %
15.04.2017 22:18 10,4 C 86 % 1013,1 hPa 0,2 l/m 16,1 km/h (3 Bft) W-SW 258 0 min 0,000 mm 0,0 UV-I 0 W/m 8,2 C 5,2 C 25,7 km/h (4 Bft) 95,12 %
15.04.2017 22:20 10,4 C 86 % 1013,1 hPa 0,0 l/m 9,2 km/h (2 Bft) W-SW 254 0 min 0,000 mm 0,0 UV-I 0 W/m 8,2 C 8,5 C 16,1 km/h (3 Bft) 95,56 %
15.04.2017 22:22 10,4 C 86 % 1013,1 hPa 0,0 l/m 13,7 km/h (3 Bft) SW 223 0 min 0,000 mm 0,0 UV-I 0 W/m 8,2 C 6,2 C 22,5 km/h (4 Bft) 96,15 %
15.04.2017 22:24 10,4 C 86 % 1013,1 hPa 0,0 l/m 11,5 km/h (2 Bft) W-SW 252 0 min 0,000 mm 0,0 UV-I 0 W/m 8,2 C 7,2 C 16,1 km/h (3 Bft) 96,23 %
15.04.2017 22:26 10,4 C 86 % 1013,1 hPa 0,0 l/m 10,9 km/h (2 Bft) SW 223 0 min 0,000 mm 0,0 UV-I 0 W/m 8,2 C 7,5 C 19,3 km/h (3 Bft) 100,00 %
15.04.2017 22:28 10,4 C 86 % 1013,1 hPa 0,0 l/m 16,5 km/h (3 Bft) W-SW 245 0 min 0,000 mm 0,0 UV-I 0 W/m 8,2 C 5,0 C 24,1 km/h (4 Bft) 100,00 %
15.04.2017 22:30 10,4 C 86 % 1013,1 hPa 0,0 l/m 15,0 km/h (3 Bft) SW 220 0 min 0,000 mm 0,0 UV-I 0 W/m 8,2 C 5,6 C 24,1 km/h (4 Bft) 100,00 %
15.04.2017 22:32 10,4 C 86 % 1013,1 hPa 0,0 l/m 16,5 km/h (3 Bft) W-SW 252 0 min 0,000 mm 0,0 UV-I 0 W/m 8,2 C 5,0 C 20,9 km/h (4 Bft) 100,00 %
15.04.2017 22:34 10,4 C 86 % 1013,0 hPa 0,0 l/m 17,6 km/h (3 Bft) W 260 0 min 0,000 mm 0,0 UV-I 0 W/m 8,2 C 4,6 C 32,2 km/h (5 Bft) 100,00 %
15.04.2017 22:36 10,4 C 86 % 1013,1 hPa 0,0 l/m 16,3 km/h (3 Bft) W-SW 250 0 min 0,000 mm 0,0 UV-I 0 W/m 8,2 C 5,1 C 27,4 km/h (4 Bft) 100,00 %
15.04.2017 22:38 10,4 C 86 % 1013,1 hPa 0,0 l/m 12,9 km/h (3 Bft) W-SW 242 0 min 0,000 mm 0,0 UV-I 0 W/m 8,2 C 6,5 C 17,7 km/h (3 Bft) 100,00 %
15.04.2017 22:40 10,4 C 86 % 1013,1 hPa 0,0 l/m 14,2 km/h (3 Bft) W 259 0 min 0,000 mm 0,0 UV-I 0 W/m 8,2 C 6,0 C 20,9 km/h (4 Bft) 100,00 %
15.04.2017 22:42 10,4 C 86 % 1013,1 hPa 0,0 l/m 13,8 km/h (3 Bft) W 265 0 min 0,000 mm 0,0 UV-I 0 W/m 8,2 C 6,1 C 22,5 km/h (4 Bft) 100,00 %
15.04.2017 22:44 10,4 C 86 % 1013,1 hPa 0,0 l/m 15,1 km/h (3 Bft) SW 217 0 min 0,000 mm 0,0 UV-I 0 W/m 8,2 C 5,6 C 22,5 km/h (4 Bft) 100,00 %
15.04.2017 22:46 10,4 C 86 % 1013,1 hPa 0,0 l/m 14,3 km/h (3 Bft) W-SW 246 0 min 0,000 mm 0,0 UV-I 0 W/m 8,2 C 5,9 C 17,7 km/h (3 Bft) 100,00 %
15.04.2017 22:48 10,4 C 86 % 1013,1 hPa 0,0 l/m 14,2 km/h (3 Bft) W-SW 238 0 min 0,000 mm 0,0 UV-I 0 W/m 8,2 C 6,0 C 19,3 km/h (3 Bft) 100,00 %
15.04.2017 22:50 10,4 C 86 % 1013,2 hPa 0,0 l/m 15,7 km/h (3 Bft) SW 236 0 min 0,000 mm 0,0 UV-I 0 W/m 8,2 C 5,3 C 20,9 km/h (4 Bft) 100,00 %
15.04.2017 22:52 10,4 C 86 % 1013,2 hPa 0,0 l/m 14,5 km/h (3 Bft) W-SW 257 0 min 0,000 mm 0,0 UV-I 0 W/m 8,2 C 5,8 C 22,5 km/h (4 Bft) 98,21 %
15.04.2017 22:54 10,4 C 86 % 1013,2 hPa 0,0 l/m 17,6 km/h (3 Bft) W-SW 257 0 min 0,000 mm 0,0 UV-I 0 W/m 8,2 C 4,6 C 29,0 km/h (5 Bft) 100,00 %
15.04.2017 22:56 10,4 C 86 % 1013,2 hPa 0,0 l/m 18,3 km/h (3 Bft) SW 236 0 min 0,000 mm 0,0 UV-I 0 W/m 8,2 C 4,4 C 27,4 km/h (4 Bft) 100,00 %
15.04.2017 22:58 10,4 C 86 % 1013,2 hPa 0,0 l/m 15,1 km/h (3 Bft) W-SW 241 0 min 0,000 mm 0,0 UV-I 0 W/m 8,2 C 5,6 C 24,1 km/h (4 Bft) 100,00 %
15.04.2017 23:00 10,4 C 86 % 1013,2 hPa 0,0 l/m 14,8 km/h (3 Bft) W-SW 254 0 min 0,025 mm 0,0 UV-I 0 W/m 8,2 C 5,7 C 20,9 km/h (4 Bft) 100,00 %
15.04.2017 23:02 10,4 C 86 % 1013,2 hPa 0,0 l/m 14,5 km/h (3 Bft) W-SW 250 0 min 0,000 mm 0,0 UV-I 0 W/m 8,2 C 5,8 C 17,7 km/h (3 Bft) 100,00 %
15.04.2017 23:04 10,4 C 86 % 1013,2 hPa 0,0 l/m 15,3 km/h (3 Bft) W-SW 252 0 min 0,000 mm 0,0 UV-I 0 W/m 8,2 C 5,5 C 22,5 km/h (4 Bft) 100,00 %
15.04.2017 23:06 10,4 C 86 % 1013,3 hPa 0,0 l/m 16,3 km/h (3 Bft) W 261 0 min 0,000 mm 0,0 UV-I 0 W/m 8,2 C 5,1 C 22,5 km/h (4 Bft) 100,00 %
15.04.2017 23:08 10,4 C 86 % 1013,3 hPa 0,0 l/m 14,0 km/h (3 Bft) SW 234 0 min 0,000 mm 0,0 UV-I 0 W/m 8,2 C 6,0 C 20,9 km/h (4 Bft) 100,00 %
15.04.2017 23:10 10,4 C 86 % 1013,2 hPa 0,0 l/m 13,8 km/h (3 Bft) S-SW 212 0 min 0,000 mm 0,0 UV-I 0 W/m 8,2 C 6,1 C 22,5 km/h (4 Bft) 100,00 %
15.04.2017 23:12 10,4 C 86 % 1013,3 hPa 0,0 l/m 15,0 km/h (3 Bft) W 269 0 min 0,000 mm 0,0 UV-I 0 W/m 8,2 C 5,6 C 24,1 km/h (4 Bft) 95,65 %
15.04.2017 23:14 10,4 C 86 % 1013,4 hPa 0,0 l/m 14,3 km/h (3 Bft) W-SW 257 0 min 0,000 mm 0,0 UV-I 0 W/m 8,2 C 5,9 C 19,3 km/h (3 Bft) 98,39 %
15.04.2017 23:16 10,4 C 86 % 1013,4 hPa 0,2 l/m 13,3 km/h (3 Bft) W-SW 254 0 min 0,000 mm 0,0 UV-I 0 W/m 8,2 C 6,4 C 19,3 km/h (3 Bft) 100,00 %
15.04.2017 23:18 10,4 C 86 % 1013,4 hPa 0,0 l/m 15,4 km/h (3 Bft) W-SW 251 0 min 0,000 mm 0,0 UV-I 0 W/m 8,2 C 5,5 C 20,9 km/h (4 Bft) 100,00 %
15.04.2017 23:20 10,3 C 87 % 1013,4 hPa 0,2 l/m 13,0 km/h (3 Bft) SW 216 0 min 0,000 mm 0,0 UV-I 0 W/m 8,2 C 6,4 C 20,9 km/h (4 Bft) 95,12 %
15.04.2017 23:22 10,3 C 87 % 1013,4 hPa 0,2 l/m 15,4 km/h (3 Bft) SW 229 0 min 0,000 mm 0,0 UV-I 0 W/m 8,2 C 5,3 C 20,9 km/h (4 Bft) 96,43 %
15.04.2017 23:24 10,2 C 88 % 1013,4 hPa 0,0 l/m 15,8 km/h (3 Bft) W-SW 238 0 min 0,000 mm 0,0 UV-I 0 W/m 8,3 C 5,1 C 24,1 km/h (4 Bft) 100,00 %
15.04.2017 23:26 10,2 C 88 % 1013,4 hPa 0,2 l/m 14,8 km/h (3 Bft) SW 222 0 min 0,000 mm 0,0 UV-I 0 W/m 8,3 C 5,5 C 24,1 km/h (4 Bft) 100,00 %
15.04.2017 23:28 10,1 C 88 % 1013,5 hPa 0,0 l/m 15,3 km/h (3 Bft) W-SW 239 0 min 0,000 mm 0,0 UV-I 0 W/m 8,2 C 5,1 C 25,7 km/h (4 Bft) 100,00 %
15.04.2017 23:30 10,1 C 89 % 1013,4 hPa 0,0 l/m 21,3 km/h (4 Bft) W-SW 244 0 min 0,000 mm 0,0 UV-I 0 W/m 8,4 C 3,0 C 32,2 km/h (5 Bft) 100,00 %
15.04.2017 23:32 10,0 C 89 % 1013,5 hPa 0,2 l/m 17,1 km/h (3 Bft) W-NW 288 0 min 0,000 mm 0,0 UV-I 0 W/m 8,3 C 4,3 C 29,0 km/h (5 Bft) 98,00 %
15.04.2017 23:34 9,9 C 89 % 1013,4 hPa 0,0 l/m 14,0 km/h (3 Bft) W 277 0 min 0,000 mm 0,0 UV-I 0 W/m 8,2 C 5,4 C 20,9 km/h (4 Bft) 100,00 %
15.04.2017 23:36 9,8 C 89 % 1013,5 hPa 0,0 l/m 15,5 km/h (3 Bft) W 262 0 min 0,000 mm 0,0 UV-I 0 W/m 8,1 C 4,7 C 29,0 km/h (5 Bft) 98,00 %
15.04.2017 23:38 9,7 C 89 % 1013,5 hPa 0,0 l/m 16,6 km/h (3 Bft) W-SW 254 0 min 0,000 mm 0,0 UV-I 0 W/m 8,0 C 4,1 C 25,7 km/h (4 Bft) 97,73 %
15.04.2017 23:40 9,7 C 89 % 1013,5 hPa 0,2 l/m 11,7 km/h (2 Bft) W 263 0 min 0,000 mm 0,0 UV-I 0 W/m 8,0 C 6,3 C 17,7 km/h (3 Bft) 98,11 %
15.04.2017 23:42 9,6 C 89 % 1013,5 hPa 0,0 l/m 11,2 km/h (2 Bft) W-SW 246 0 min 0,000 mm 0,0 UV-I 0 W/m 7,9 C 6,5 C 17,7 km/h (3 Bft) 98,00 %
15.04.2017 23:44 9,6 C 90 % 1013,5 hPa 0,0 l/m 12,0 km/h (2 Bft) W 259 0 min 0,000 mm 0,0 UV-I 0 W/m 8,0 C 6,1 C 19,3 km/h (3 Bft) 95,74 %
15.04.2017 23:46 9,5 C 90 % 1013,4 hPa 0,0 l/m 13,3 km/h (3 Bft) W-SW 257 0 min 0,000 mm 0,0 UV-I 0 W/m 7,9 C 5,3 C 22,5 km/h (4 Bft) 97,44 %
15.04.2017 23:48 9,5 C 90 % 1013,4 hPa 0,0 l/m 11,6 km/h (2 Bft) SW 234 0 min 0,000 mm 0,0 UV-I 0 W/m 7,9 C 6,1 C 19,3 km/h (3 Bft) 97,73 %
15.04.2017 23:50 9,5 C 90 % 1013,4 hPa 0,0 l/m 15,0 km/h (3 Bft) W 263 0 min 0,000 mm 0,0 UV-I 0 W/m 7,9 C 4,5 C 22,5 km/h (4 Bft) 97,73 %
15.04.2017 23:52 9,4 C 90 % 1013,4 hPa 0,0 l/m 10,2 km/h (2 Bft) W-SW 242 0 min 0,000 mm 0,0 UV-I 0 W/m 7,8 C 6,8 C 16,1 km/h (3 Bft) 96,61 %
15.04.2017 23:54 9,4 C 90 % 1013,4 hPa 0,0 l/m 8,7 km/h (2 Bft) SW 222 0 min 0,000 mm 0,0 UV-I 0 W/m 7,8 C 7,7 C 14,5 km/h (3 Bft) 100,00 %
15.04.2017 23:56 9,4 C 90 % 1013,4 hPa 0,0 l/m 12,2 km/h (2 Bft) S-SW 209 0 min 0,000 mm 0,0 UV-I 0 W/m 7,8 C 5,7 C 17,7 km/h (3 Bft) 95,74 %
15.04.2017 23:58 9,4 C 91 % 1013,5 hPa 0,0 l/m 11,2 km/h (2 Bft) W-SW 253 0 min 0,000 mm 0,0 UV-I 0 W/m 8,0 C 6,2 C 16,1 km/h (3 Bft) 94,29 %
_ Min-Zeit 02:20 15:02 18:40 - 01:50 - - - - - - 02:15 23:30 01:55 16:22
Minimum _ 7,2 C 52 % 1011,9 hPa - 0,0 km/h (0 Bft) - - - - - - 5,1 C 3,0 C 1,6 km/h (1 Bft) 86,00 %
_ Max-Zeit 15:02 23:58 00:00 16:12 17:42 - - 06:25 12:00 11:32 11:34 16:32 15:28 17:44 01:15
Maximum _ 16,2 C 91 % 1015,2 hPa 0,2 l/m 24,8 km/h
W-SW (4 Bft)
- - 5 min 0,254 mm 3,3 UV-I 1008 W/m 9,0 C 15,7 C 40,2 km/h
SW (6 Bft)
100,00 %
Durchschnitt _ 11,0 C 75 % 1013,7 hPa #2,2 l/m 9,5 km/h (2 Bft) W-SW - #1:33 h #2,057 mm 1,3 UV-I 194 W/m 6,6 C 8,9 C 15,3 km/h (3 Bft) 96,96 %